<- Previous Day | Today | Next Day ->

All Data for 21 July 2019

 

Time A - D Temp A - D Dew Point A - D Humidity A - D Pressure A - D Wind A - D Wind Dir Gust A - D Rain Rate A - D Rain Total
00:00 15.6 12.0 79 1018.4 5.4 SW 6.9 0.0 0.0
00:01 15.6 12.0 79 1018.5 5.4 SW 6.9 0.0 0.0
00:02 15.6 12.0 79 1018.5 5.4 SW 6.9 0.0 0.0
00:03 15.6 12.0 79 1018.6 5.4 SW 6.9 0.0 0.0
00:04 15.6 12.0 79 1018.6 5.4 SW 6.9 0.0 0.0
00:05 15.6 12.0 79 1018.6 5.4 SW 6.9 0.0 0.0
00:06 15.6 12.0 79 1018.6 5.4 SW 6.0 0.0 0.0
00:07 15.7 12.3 80 1018.4 4.5 W 6.0 0.0 0.0
00:09 15.7 12.3 80 1018.5 4.5 SW 7.6 0.0 0.0
00:10 15.7 12.3 80 1018.6 3.8 SW 7.6 0.0 0.0
00:11 15.7 12.3 80 1018.6 3.8 SW 7.6 0.0 0.0
00:12 15.7 12.3 80 1018.6 3.8 SW 7.6 0.0 0.0
00:13 15.7 12.3 80 1018.7 4.5 SW 7.6 0.0 0.0
00:14 15.7 12.3 80 1018.7 4.5 W 7.6 0.0 0.0
00:15 15.7 12.3 80 1018.7 4.5 W 7.6 0.0 0.0
00:16 15.7 12.3 80 1018.6 4.5 W 7.6 0.0 0.0
00:17 15.7 12.3 80 1018.5 4.5 W 7.6 0.0 0.0
00:18 15.7 12.3 80 1018.6 4.5 W 6.0 0.0 0.0
00:19 15.8 12.4 80 1018.5 3.8 SW 6.0 0.0 0.0
00:20 15.8 12.4 80 1018.6 4.5 SW 6.0 0.0 0.0
00:21 15.8 12.4 80 1018.5 7.6 SW 7.6 0.0 0.0
00:22 15.8 12.4 80 1018.5 6.9 SW 7.6 0.0 0.0
00:23 15.8 12.4 80 1018.5 3.8 SW 7.6 0.0 0.0
00:24 15.8 12.4 80 1018.6 3.8 SW 7.6 0.0 0.0
00:25 15.8 12.4 80 1018.7 5.4 SW 7.6 0.0 0.0
00:26 15.8 12.4 80 1018.6 4.5 WSW 7.6 0.0 0.0
00:28 15.8 12.4 80 1018.7 5.4 SW 7.6 0.0 0.0
00:29 15.8 12.4 80 1018.5 4.5 SW 7.6 0.0 0.0
00:30 15.8 12.4 80 1018.7 4.5 SW 7.6 0.0 0.0
00:31 15.8 12.4 80 1018.8 4.5 SW 7.6 0.0 0.0
00:32 15.8 12.4 80 1018.7 4.5 SW 5.4 0.0 0.0
00:33 15.8 12.4 80 1018.7 4.5 SW 5.4 0.0 0.0
00:34 15.7 12.3 80 1018.6 3.8 S 5.4 0.0 0.0
00:35 15.8 12.4 80 1018.7 5.4 SW 5.4 0.0 0.0
00:36 15.8 12.4 80 1018.6 5.4 SW 5.4 0.0 0.0
00:37 15.7 12.3 80 1018.6 3.8 S 5.4 0.0 0.0
00:38 15.7 12.3 80 1018.5 3.8 W 5.4 0.0 0.0
00:39 15.7 12.3 80 1018.7 3.8 W 5.4 0.0 0.0
00:40 15.7 12.3 80 1018.7 3.8 W 5.4 0.0 0.0
00:41 15.7 12.3 80 1018.6 3.8 SW 5.4 0.0 0.0
00:42 15.7 12.3 80 1018.6 3.8 S 5.4 0.0 0.0
00:43 15.7 12.3 80 1018.5 3.8 S 5.4 0.0 0.0
00:44 15.7 12.3 80 1018.7 3.8 S 5.4 0.0 0.0
00:46 15.7 12.3 80 1018.6 3.8 S 5.4 0.0 0.0
00:47 15.7 12.3 80 1018.5 3.8 S 3.8 0.0 0.0
00:48 15.7 12.3 80 1018.5 4.5 S 4.5 0.0 0.0
00:49 15.7 12.3 80 1018.6 4.5 S 4.5 0.0 0.0
00:50 15.7 12.3 80 1018.6 3.8 SW 4.5 0.0 0.0
00:51 15.7 12.3 80 1018.6 3.8 SW 4.5 0.0 0.0
00:52 15.7 12.3 80 1018.8 4.5 S 4.5 0.0 0.0
00:53 15.7 12.3 80 1018.8 3.8 SW 4.5 0.0 0.0
00:54 15.7 12.3 80 1018.7 5.4 S 5.4 0.0 0.0
00:55 15.7 12.3 80 1018.8 5.4 S 5.4 0.0 0.0
00:56 15.6 12.2 80 1018.8 3.1 SW 5.4 0.0 0.0
00:57 15.6 12.2 80 1018.8 3.1 S 5.4 0.0 0.0
00:58 15.6 12.2 80 1018.7 5.4 SW 5.4 0.0 0.0
00:59 15.6 12.2 80 1018.7 5.4 SW 5.4 0.0 0.0
01:00 15.6 12.2 80 1018.8 4.5 SW 5.4 0.0 0.0
01:01 15.6 12.2 80 1018.7 4.5 W 5.4 0.0 0.0
01:02 15.6 12.2 80 1018.9 4.5 W 5.4 0.0 0.0
01:03 15.6 12.2 80 1018.9 4.5 W 5.4 0.0 0.0
01:04 15.6 12.2 80 1018.8 4.5 W 5.4 0.0 0.0
01:05 15.6 12.2 80 1018.9 4.5 W 5.4 0.0 0.0
01:06 15.6 12.2 80 1018.6 4.5 W 5.4 0.0 0.0
01:07 15.6 12.2 80 1018.9 3.1 S 5.4 0.0 0.0
01:08 15.6 12.2 80 1018.6 3.8 SW 5.4 0.0 0.0
01:09 15.6 12.2 80 1018.8 3.8 SW 5.4 0.0 0.0
01:10 15.6 12.2 80 1018.8 5.4 SW 5.4 0.0 0.0
01:11 15.6 12.2 80 1018.7 5.4 SW 5.4 0.0 0.0
01:12 15.5 12.1 80 1018.6 3.8 SW 5.4 0.0 0.0
01:13 15.6 12.2 80 1018.8 4.5 SW 5.4 0.0 0.0
01:14 15.6 12.2 80 1018.8 5.4 S 5.4 0.0 0.0
01:15 15.6 12.2 80 1018.9 5.4 S 5.4 0.0 0.0
01:16 15.5 12.1 80 1019.0 3.8 SW 5.4 0.0 0.0
01:18 15.5 12.1 80 1018.8 3.8 SW 5.4 0.0 0.0
01:19 15.5 12.1 80 1018.9 3.8 SW 5.4 0.0 0.0
01:20 15.5 12.1 80 1018.8 2.2 SW 5.4 0.0 0.0
01:21 15.5 12.1 80 1018.9 2.2 SW 5.4 0.0 0.0
01:22 15.5 12.1 80 1018.8 3.1 SW 5.4 0.0 0.0
01:23 15.5 12.1 80 1018.8 4.5 SW 5.4 0.0 0.0
01:24 15.5 12.1 80 1018.8 3.1 S 5.4 0.0 0.0
01:25 15.5 12.1 80 1018.8 3.1 S 5.4 0.0 0.0
01:26 15.5 12.1 80 1018.9 3.1 SW 4.5 0.0 0.0
01:27 15.5 12.1 80 1018.9 3.1 SW 4.5 0.0 0.0
01:28 15.5 12.1 80 1018.8 3.1 SW 4.5 0.0 0.0
01:29 15.5 12.1 80 1018.9 3.8 S 4.5 0.0 0.0
01:30 15.4 12.0 80 1018.9 2.2 SW 4.5 0.0 0.0
01:31 15.4 12.0 80 1018.9 2.2 SW 4.5 0.0 0.0
01:32 15.4 12.0 80 1018.9 2.2 SE 4.5 0.0 0.0
01:33 15.4 12.0 80 1018.9 2.2 SE 3.8 0.0 0.0
01:34 15.4 12.0 80 1018.9 2.2 SE 3.8 0.0 0.0
01:35 15.4 12.0 80 1019.0 2.2 SE 3.8 0.0 0.0
01:36 15.4 12.0 80 1018.9 2.2 SE 3.8 0.0 0.0
01:38 15.4 12.0 80 1018.8 3.1 SW 4.5 0.0 0.0
01:39 15.4 12.0 80 1018.9 3.1 S 4.5 0.0 0.0
01:40 15.4 12.0 80 1019.0 4.5 SW 4.5 0.0 0.0
01:41 15.4 12.0 80 1019.0 6.0 SW 6.0 0.0 0.0
01:42 15.4 12.0 80 1018.9 3.8 SW 6.0 0.0 0.0
01:43 15.4 12.0 80 1018.9 4.5 SW 6.0 0.0 0.0
01:44 15.4 12.0 80 1019.0 3.8 SW 6.0 0.0 0.0
01:45 15.4 12.0 80 1018.9 3.8 S 6.0 0.0 0.0
01:46 15.4 12.0 80 1018.9 3.1 WSW 6.0 0.0 0.0
01:47 15.4 12.0 80 1018.7 3.1 WSW 6.0 0.0 0.0
01:48 15.3 11.9 80 1018.9 3.1 SW 6.0 0.0 0.0
01:49 15.3 11.9 80 1018.9 3.8 SW 6.0 0.0 0.0
01:50 15.3 11.9 80 1019.0 3.1 S 6.0 0.0 0.0
01:51 15.3 11.9 80 1018.7 2.2 SW 6.0 0.0 0.0
01:52 15.3 11.9 80 1018.7 3.1 SW 4.5 0.0 0.0
01:53 15.3 11.9 80 1018.8 1.6 S 3.8 0.0 0.0
01:54 15.3 11.9 80 1018.9 3.8 SW 3.8 0.0 0.0
01:55 15.3 11.9 80 1018.7 2.2 SE 3.8 0.0 0.0
01:56 15.3 11.9 80 1018.8 3.1 SW 3.8 0.0 0.0
01:58 15.2 11.8 80 1018.6 3.1 S 3.8 0.0 0.0
01:59 15.2 11.8 80 1018.8 2.2 S 3.8 0.0 0.0
02:00 15.2 11.8 80 1018.7 2.2 S 3.8 0.0 0.0
02:01 15.2 11.8 80 1018.7 2.2 S 3.8 0.0 0.0
02:02 15.2 11.8 80 1018.7 2.2 S 3.8 0.0 0.0
02:03 15.2 11.8 80 1018.8 2.2 S 3.8 0.0 0.0
02:04 15.2 11.8 80 1018.7 2.2 S 3.8 0.0 0.0
02:05 15.2 11.8 80 1018.7 2.2 S 3.1 0.0 0.0
02:06 15.2 11.8 80 1018.8 2.2 S 3.1 0.0 0.0
02:07 15.2 12.0 81 1018.8 3.8 SW 3.8 0.0 0.0
02:08 15.2 11.8 80 1018.9 2.2 SW 3.8 0.0 0.0
02:09 15.1 11.7 80 1018.9 1.6 SW 3.8 0.0 0.0
02:10 15.1 11.9 81 1019.0 2.2 SW 3.8 0.0 0.0
02:11 15.1 11.9 81 1018.8 1.6 SW 3.8 0.0 0.0
02:12 15.1 11.9 81 1019.0 3.1 SW 3.8 0.0 0.0
02:13 15.1 11.9 81 1018.8 2.2 SW 3.8 0.0 0.0
02:14 15.1 11.9 81 1019.0 0.7 SW 3.8 0.0 0.0
02:15 15.1 11.9 81 1018.8 0.7 SW 3.8 0.0 0.0
02:17 15.1 11.9 81 1018.9 1.6 SW 3.8 0.0 0.0
02:18 15.1 11.9 81 1018.9 1.6 SW 3.1 0.0 0.0
02:19 15.1 11.9 81 1019.0 1.6 SW 3.1 0.0 0.0
02:20 15.1 11.9 81 1019.0 1.6 SW 3.1 0.0 0.0
02:21 15.1 11.9 81 1019.0 2.2 S 3.1 0.0 0.0
02:22 15.1 11.9 81 1018.9 0.7 W 3.1 0.0 0.0
02:23 15.1 11.9 81 1019.0 1.6 S 2.2 0.0 0.0
02:24 15.1 11.9 81 1019.0 1.6 W 2.2 0.0 0.0
02:25 15.1 11.9 81 1018.9 1.6 SE 2.2 0.0 0.0
02:26 15.1 11.9 81 1018.9 1.6 SW 2.2 0.0 0.0
02:27 15.1 11.9 81 1019.0 1.6 W 2.2 0.0 0.0
02:28 15.1 11.9 81 1018.9 3.1 SW 3.1 0.0 0.0
02:29 15.1 11.9 81 1019.0 3.1 SW 3.1 0.0 0.0
02:30 15.1 11.9 81 1019.0 1.6 SW 3.1 0.0 0.0
02:31 15.1 11.9 81 1018.8 1.6 SW 3.1 0.0 0.0
02:32 15.2 12.0 81 1019.0 1.6 W 3.1 0.0 0.0
02:33 15.2 12.0 81 1019.0 1.6 SW 3.1 0.0 0.0
02:34 15.2 12.0 81 1018.9 1.6 W 3.1 0.0 0.0
02:35 15.2 12.0 81 1018.9 3.1 SW 3.1 0.0 0.0
02:36 15.2 12.0 81 1019.0 2.2 SW 3.1 0.0 0.0
02:37 15.2 12.0 81 1019.0 2.2 SW 3.1 0.0 0.0
02:39 15.2 12.0 81 1019.0 0.7 W 3.1 0.0 0.0
02:40 15.2 12.0 81 1018.7 1.6 W 3.1 0.0 0.0
02:41 15.2 12.0 81 1018.9 2.2 SW 3.1 0.0 0.0
02:42 15.2 12.0 81 1018.8 2.2 SSW 3.1 0.0 0.0
02:43 15.2 12.0 81 1018.9 2.2 S 3.1 0.0 0.0
02:44 15.2 12.0 81 1018.8 2.2 SW 3.1 0.0 0.0
02:45 15.2 12.0 81 1018.7 1.6 SW 3.1 0.0 0.0
02:46 15.2 12.2 82 1018.7 1.6 S 2.2 0.0 0.0
02:47 15.2 12.0 81 1018.7 1.6 S 2.2 0.0 0.0
02:48 15.2 12.2 82 1018.7 0.0 S 2.2 0.0 0.0
02:49 15.2 12.2 82 1018.7 0.7 S 2.2 0.0 0.0
02:50 15.2 12.2 82 1018.6 0.0 S 2.2 0.0 0.0
02:51 15.2 12.2 82 1018.7 1.6 S 2.2 0.0 0.0
02:52 15.2 12.2 82 1018.6 0.0 S 2.2 0.0 0.0
02:53 15.2 12.2 82 1018.6 0.0 S 2.2 0.0 0.0
02:54 15.2 12.2 82 1018.6 0.0 S 1.6 0.0 0.0
02:55 15.2 12.2 82 1018.6 0.0 SW 1.6 0.0 0.0
02:56 15.2 12.2 82 1018.7 0.0 SW 1.6 0.0 0.0
02:58 15.2 12.2 82 1018.6 0.7 SW 1.6 0.0 0.0
02:59 15.3 12.3 82 1018.7 0.7 SW 1.6 0.0 0.0
03:00 15.3 12.3 82 1018.8 0.0 SW 1.6 0.0 0.0
03:01 15.3 12.3 82 1018.8 0.0 SW 1.6 0.0 0.0
03:02 15.3 12.3 82 1018.8 0.7 SW 1.6 0.0 0.0
03:03 15.3 12.3 82 1018.6 0.7 SW 1.6 0.0 0.0
03:04 15.3 12.3 82 1018.9 0.7 SW 1.6 0.0 0.0
03:05 15.3 12.3 82 1018.8 0.7 SW 1.6 0.0 0.0
03:06 15.3 12.3 82 1018.8 0.7 SW 1.6 0.0 0.0
03:07 15.3 12.3 82 1018.9 0.7 SW 1.6 0.0 0.0
03:08 15.3 12.3 82 1018.9 0.7 S 1.6 0.0 0.0
03:09 15.3 12.3 82 1018.8 1.6 S 1.6 0.0 0.0
03:10 15.3 12.3 82 1018.9 1.6 S 1.6 0.0 0.0
03:11 15.3 12.3 82 1018.9 1.6 S 1.6 0.0 0.0
03:12 15.3 12.3 82 1018.9 2.2 S 2.2 0.0 0.0
03:13 15.3 12.3 82 1018.9 1.6 S 2.2 0.0 0.0
03:14 15.3 12.3 82 1018.9 0.0 S 2.2 0.0 0.0
03:15 15.3 12.3 82 1019.0 0.0 S 2.2 0.0 0.0
03:16 15.3 12.3 82 1018.8 0.0 S 2.2 0.0 0.0
03:17 15.3 12.3 82 1019.0 0.0 S 2.2 0.0 0.0
03:19 15.3 12.3 82 1018.9 1.6 W 2.2 0.0 0.0
03:20 15.3 12.3 82 1018.8 1.6 W 2.2 0.0 0.0
03:21 15.3 12.3 82 1018.8 1.6 W 2.2 0.0 0.0
03:22 15.3 12.3 82 1018.9 0.0 W 2.2 0.0 0.0
03:23 15.4 12.3 82 1018.8 0.0 W 1.6 0.0 0.0
03:24 15.4 12.3 82 1018.8 0.0 W 1.6 0.0 0.0
03:25 15.4 12.3 82 1018.8 0.0 W 1.6 0.0 0.0
03:26 15.4 12.3 82 1018.8 0.0 W 1.6 0.0 0.0
03:27 15.4 12.3 82 1018.9 0.0 W 1.6 0.0 0.0
03:28 15.4 12.3 82 1018.8 0.0 W 1.6 0.0 0.0
03:29 15.4 12.3 82 1018.9 0.0 W 1.6 0.0 0.0
03:30 15.4 12.3 82 1019.0 0.0 W 1.6 0.0 0.0
03:31 15.4 12.3 82 1018.9 0.0 W 1.6 0.0 0.0
03:32 15.4 12.5 83 1018.9 0.0 SW 0.0 0.0 0.0
03:33 15.4 12.5 83 1019.0 0.0 SW 0.0 0.0 0.0
03:34 15.4 12.5 83 1018.9 0.0 SW 0.0 0.0 0.0
03:35 15.4 12.5 83 1019.0 0.0 SW 0.0 0.0 0.0
03:36 15.4 12.5 83 1019.0 0.0 SW 0.0 0.0 0.0
03:38 15.4 12.5 83 1019.0 0.0 SW 0.0 0.0 0.0
03:39 15.4 12.5 83 1019.0 0.0 SW 0.0 0.0 0.0
03:40 15.4 12.5 83 1019.0 0.0 SW 0.0 0.0 0.0
03:41 15.4 12.5 83 1019.1 0.0 W 0.0 0.0 0.0
03:42 15.4 12.5 83 1019.0 0.0 W 0.0 0.0 0.0
03:43 15.4 12.5 83 1019.0 0.0 W 0.0 0.0 0.0
03:44 15.4 12.5 83 1019.0 0.0 W 0.0 0.0 0.0
03:45 15.4 12.5 83 1019.0 0.0 W 0.0 0.0 0.0
03:46 15.5 12.6 83 1019.0 0.0 W 0.0 0.0 0.0
03:47 15.4 12.5 83 1018.9 0.0 W 0.0 0.0 0.0
03:48 15.5 12.6 83 1019.0 0.0 SW 0.0 0.0 0.0
03:49 15.5 12.6 83 1019.0 0.0 SW 0.0 0.0 0.0
03:50 15.5 12.6 83 1019.0 0.0 SW 0.0 0.0 0.0
03:51 15.5 12.6 83 1019.1 0.0 SW 0.0 0.0 0.0
03:52 15.5 12.6 83 1019.2 0.0 SW 0.0 0.0 0.0
03:53 15.5 12.6 83 1019.2 0.0 SW 0.0 0.0 0.0
03:54 15.5 12.6 83 1019.2 0.0 W 0.0 0.0 0.0
03:55 15.5 12.6 83 1019.1 0.0 W 0.0 0.0 0.0
03:57 15.5 12.6 83 1019.1 0.0 W 0.0 0.0 0.0
03:58 15.5 12.6 83 1019.1 0.0 W 0.0 0.0 0.0
03:59 15.5 12.6 83 1019.1 0.0 W 0.0 0.0 0.0
04:00 15.5 12.6 83 1019.1 0.0 W 0.0 0.0 0.0
04:01 15.5 12.6 83 1019.0 0.0 W 0.0 0.0 0.0
04:02 15.5 12.6 83 1019.0 0.0 W 0.0 0.0 0.0
04:03 15.5 12.6 83 1019.0 0.0 W 0.0 0.0 0.0
04:04 15.5 12.6 83 1019.1 0.0 W 0.0 0.0 0.0
04:05 15.5 12.6 83 1019.0 0.0 W 0.0 0.0 0.0
04:06 15.5 12.6 83 1019.0 0.0 W 0.0 0.0 0.0
04:07 15.5 12.6 83 1019.0 0.0 W 0.0 0.0 0.0
04:08 15.5 12.6 83 1019.1 0.0 W 0.0 0.0 0.0
04:09 15.5 12.6 83 1019.0 0.0 W 0.0 0.0 0.0
04:10 15.5 12.6 83 1019.1 0.0 W 0.0 0.0 0.0
04:11 15.5 12.6 83 1019.1 0.0 W 0.0 0.0 0.0
04:12 15.5 12.6 83 1019.0 0.0 W 0.0 0.0 0.0
04:13 15.5 12.6 83 1019.1 0.0 W 0.0 0.0 0.0
04:14 15.6 12.7 83 1019.0 0.0 W 0.0 0.0 0.0
04:16 15.6 12.7 83 1019.0 0.0 W 0.0 0.0 0.0
04:17 15.6 12.7 83 1019.2 0.0 W 0.0 0.0 0.0
04:18 15.6 12.7 83 1019.1 0.0 W 0.0 0.0 0.0
04:19 15.6 12.7 83 1019.1 0.0 W 0.0 0.0 0.0
04:20 15.6 12.7 83 1019.1 0.0 W 0.0 0.0 0.0
04:21 15.6 12.7 83 1019.1 0.0 W 0.0 0.0 0.0
04:22 15.6 12.7 83 1019.2 0.0 W 0.0 0.0 0.0
04:23 15.6 12.7 83 1019.0 0.0 W 0.0 0.0 0.0
04:24 15.6 12.7 83 1019.0 0.0 W 0.0 0.0 0.0
04:25 15.6 12.9 84 1019.2 0.0 W 0.0 0.0 0.0
04:26 15.6 12.9 84 1019.0 0.0 W 0.0 0.0 0.0
04:27 15.6 12.9 84 1019.2 0.0 W 0.0 0.0 0.0
04:28 15.6 12.9 84 1019.2 0.0 W 0.0 0.0 0.0
04:29 15.6 12.9 84 1019.0 0.0 W 0.0 0.0 0.0
04:30 15.6 12.9 84 1019.0 0.0 W 0.0 0.0 0.0
04:31 15.6 12.9 84 1019.0 0.0 W 0.0 0.0 0.0
04:32 15.6 12.9 84 1019.1 0.0 W 0.0 0.0 0.0
04:33 15.6 12.9 84 1019.1 0.0 W 0.0 0.0 0.0
04:35 15.6 12.9 84 1019.1 0.0 W 0.0 0.0 0.0
04:36 15.6 12.9 84 1019.1 0.0 W 0.0 0.0 0.0
04:37 15.6 12.9 84 1019.1 0.0 W 0.0 0.0 0.0
04:38 15.7 13.0 84 1019.0 0.0 W 0.0 0.0 0.0
04:39 15.6 12.9 84 1019.0 0.0 W 0.0 0.0 0.0
04:40 15.6 12.9 84 1019.2 0.0 W 0.0 0.0 0.0
04:41 15.6 12.9 84 1019.1 0.0 W 0.0 0.0 0.0
04:42 15.6 12.9 84 1019.2 0.0 W 0.0 0.0 0.0
04:43 15.6 12.9 84 1019.2 0.0 W 0.0 0.0 0.0
04:44 15.6 12.9 84 1019.1 0.0 W 0.0 0.0 0.0
04:45 15.6 12.9 84 1019.0 0.0 W 0.0 0.0 0.0
04:46 15.6 12.9 84 1019.1 0.0 W 0.0 0.0 0.0
04:47 15.6 12.9 84 1019.2 0.0 W 0.0 0.0 0.0
04:48 15.6 12.9 84 1019.1 0.0 W 0.0 0.0 0.0
04:49 15.6 12.9 84 1019.2 0.0 W 0.0 0.0 0.0
04:50 15.6 12.9 84 1019.2 0.0 W 0.0 0.0 0.0
04:51 15.6 12.9 84 1019.2 0.0 W 0.0 0.0 0.0
04:53 15.6 12.9 84 1019.3 0.0 W 0.0 0.0 0.0
04:54 15.6 12.9 84 1019.2 0.0 W 0.0 0.0 0.1
04:55 15.6 12.9 84 1019.1 0.0 W 0.0 0.8 0.1
04:56 15.6 12.9 84 1019.3 0.0 W 0.0 0.8 0.1
04:57 15.6 12.9 84 1019.3 0.0 W 0.0 0.8 0.1
04:58 15.6 12.9 84 1019.1 0.0 W 0.0 0.8 0.1
04:59 15.6 12.9 84 1019.2 0.0 W 0.0 0.8 0.1
05:00 15.6 12.9 84 1019.3 0.0 W 0.0 0.0 0.1
05:01 15.6 12.9 84 1019.2 0.0 W 0.0 0.0 0.1
05:02 15.6 12.9 84 1019.3 0.0 W 0.7 0.0 0.1
05:03 15.6 12.9 84 1019.2 0.0 W 0.7 0.0 0.1
05:04 15.6 12.9 84 1019.2 0.0 W 0.7 0.0 0.1
05:05 15.6 12.9 84 1019.3 0.0 W 0.7 0.0 0.1
05:06 15.6 12.9 84 1019.4 0.0 W 0.7 0.0 0.1
05:07 15.6 12.9 84 1019.2 0.0 W 0.7 0.0 0.1
05:09 15.6 12.9 84 1019.3 0.0 W 0.7 0.0 0.1
05:10 15.6 12.9 84 1019.3 0.0 W 0.7 0.0 0.1
05:11 15.6 12.9 84 1019.3 0.0 W 0.7 0.0 0.1
05:12 15.6 12.9 84 1019.3 0.0 W 0.0 0.0 0.1
05:13 15.6 12.9 84 1019.4 0.0 W 0.0 0.0 0.1
05:14 15.6 12.9 84 1019.4 0.0 W 0.0 0.0 0.1
05:15 15.6 12.9 84 1019.3 0.0 W 0.0 0.0 0.1
05:16 15.6 12.9 84 1019.4 0.0 W 0.0 0.0 0.1
05:17 15.6 13.1 85 1019.5 0.0 W 0.0 0.0 0.1
05:18 15.6 13.1 85 1019.4 0.0 W 0.0 0.0 0.1
05:19 15.6 13.1 85 1019.3 0.0 W 0.0 0.0 0.1
05:20 15.6 13.1 85 1019.4 0.0 W 0.0 0.0 0.1
05:21 15.6 13.1 85 1019.4 0.0 W 0.0 0.0 0.1
05:23 15.6 13.1 85 1019.4 0.0 W 0.0 0.0 0.1
05:24 15.6 13.1 85 1019.4 0.0 W 0.0 0.0 0.1
05:25 15.6 13.1 85 1019.4 0.0 W 0.0 0.0 0.1
05:26 15.6 13.1 85 1019.4 0.0 W 0.0 0.0 0.1
05:27 15.6 13.1 85 1019.4 0.0 W 0.0 0.0 0.1
05:28 15.6 13.1 85 1019.5 0.0 W 0.0 0.0 0.1
05:29 15.6 13.1 85 1019.3 0.0 W 0.0 0.0 0.1
05:30 15.6 13.1 85 1019.5 0.0 W 0.0 0.0 0.1
05:31 15.6 13.1 85 1019.5 0.0 W 0.0 0.0 0.1
05:32 15.6 13.1 85 1019.4 0.0 W 0.0 0.0 0.1
05:33 15.6 13.1 85 1019.4 0.0 W 0.0 0.0 0.1
05:34 15.6 13.1 85 1019.3 0.0 W 0.0 0.0 0.1
05:35 15.6 13.1 85 1019.5 0.0 W 0.0 0.0 0.1
05:38 15.6 13.1 85 1019.5 0.0 W 0.0 0.0 0.1
05:39 15.6 13.1 85 1019.4 0.0 W 0.0 0.0 0.1
05:40 15.6 13.1 85 1019.6 0.0 W 0.0 0.0 0.1
05:41 15.7 13.2 85 1019.4 0.0 W 0.0 0.0 0.1
05:42 15.7 13.2 85 1019.5 0.0 W 0.0 0.0 0.1
05:43 15.7 13.2 85 1019.5 0.0 W 0.0 0.0 0.1
05:44 15.7 13.2 85 1019.5 0.0 W 0.0 0.0 0.1
05:45 15.7 13.2 85 1019.6 0.0 W 0.0 0.0 0.1
05:46 15.7 13.2 85 1019.5 0.0 W 0.0 0.0 0.1
05:47 15.7 13.2 85 1019.4 0.0 W 0.0 0.0 0.1
05:48 15.7 13.2 85 1019.5 0.0 W 0.0 0.0 0.1
05:49 15.7 13.2 85 1019.6 0.0 W 0.0 0.0 0.1
05:50 15.7 13.2 85 1019.5 0.0 W 0.0 0.0 0.1
05:51 15.7 13.2 85 1019.6 0.0 W 0.0 0.0 0.1
05:53 15.7 13.2 85 1019.5 0.0 W 0.0 0.0 0.1
05:54 15.7 13.2 85 1019.5 0.0 W 0.0 0.0 0.1
05:55 15.7 13.2 85 1019.6 0.0 W 0.0 0.0 0.1
05:56 15.7 13.2 85 1019.7 0.0 W 0.0 0.0 0.1
05:57 15.7 13.2 85 1019.7 0.0 W 0.0 0.0 0.1
05:58 15.7 13.2 85 1019.6 0.0 W 0.0 0.0 0.1
05:59 15.7 13.2 85 1019.5 0.0 W 0.0 0.0 0.1
06:00 15.7 13.2 85 1019.5 0.0 W 0.0 0.0 0.1
06:01 15.7 13.2 85 1019.5 0.0 W 0.0 0.0 0.1
06:02 15.7 13.2 85 1019.5 0.0 W 0.0 0.0 0.1
06:03 15.7 13.2 85 1019.4 0.0 W 0.0 0.0 0.1
06:04 15.7 13.2 85 1019.4 0.0 W 0.0 0.0 0.1
06:05 15.7 13.2 85 1019.4 0.0 W 0.0 0.0 0.1
06:06 15.7 13.2 85 1019.4 0.0 W 0.0 0.0 0.1
06:09 15.7 13.2 85 1019.2 0.0 W 0.0 0.0 0.1
06:10 15.7 13.2 85 1019.4 0.0 W 0.0 0.0 0.1
06:11 15.7 13.2 85 1019.4 0.0 W 0.0 0.0 0.1
06:12 15.7 13.2 85 1019.4 0.0 W 0.0 0.0 0.1
06:13 15.7 13.2 85 1019.6 0.0 W 0.0 0.0 0.1
06:14 15.7 13.2 85 1019.7 0.0 W 0.0 0.0 0.1
06:15 15.7 13.2 85 1019.5 0.0 W 0.0 0.0 0.1
06:16 15.7 13.2 85 1019.6 0.0 W 0.0 0.0 0.1
06:17 15.7 13.2 85 1019.6 0.0 W 0.0 0.0 0.1
06:18 15.7 13.2 85 1019.5 0.0 W 0.0 0.0 0.1
06:19 15.7 13.2 85 1019.6 0.0 W 0.0 0.0 0.1
06:20 15.7 13.2 85 1019.5 0.0 W 0.0 0.0 0.1
06:21 15.7 13.2 85 1019.5 0.0 W 0.0 0.0 0.1
06:23 15.7 13.2 85 1019.5 0.0 W 0.0 0.0 0.1
06:24 15.7 13.2 85 1019.6 0.0 W 0.0 0.0 0.1
06:25 15.7 13.2 85 1019.7 0.0 W 0.0 0.0 0.1
06:26 15.7 13.2 85 1019.6 0.0 W 0.0 0.0 0.1
06:27 15.7 13.2 85 1019.8 0.0 W 0.0 0.0 0.1
06:28 15.7 13.2 85 1019.7 0.0 W 0.0 0.0 0.1
06:29 15.7 13.2 85 1019.7 0.0 W 0.0 0.0 0.1
06:30 15.7 13.2 85 1019.8 0.0 W 0.0 0.0 0.1
06:31 15.7 13.2 85 1019.8 0.0 W 0.0 0.0 0.1
06:32 15.7 13.4 86 1019.8 0.0 W 0.0 0.0 0.3
06:33 15.8 13.5 86 1019.8 0.0 W 0.0 2.3 0.3
06:34 15.8 13.5 86 1019.8 0.0 W 0.0 3.0 0.4
06:35 15.8 13.5 86 1019.7 0.0 W 0.0 3.8 0.4
06:37 15.8 13.5 86 1019.7 0.0 W 0.0 4.5 0.4
06:38 15.8 13.5 86 1019.5 0.0 W 0.0 2.3 0.4
06:39 15.8 13.5 86 1019.7 0.0 W 0.0 1.5 0.4
06:40 15.8 13.5 86 1019.8 0.0 W 0.0 0.8 0.4
06:41 15.8 13.5 86 1019.8 0.0 W 0.0 1.5 0.5
06:42 15.8 13.5 86 1019.8 0.0 W 0.0 0.8 0.5
06:43 15.8 13.5 86 1019.8 0.0 SW 0.0 0.8 0.5
06:44 15.8 13.5 86 1019.8 0.0 W 0.0 0.8 0.6
06:45 15.8 13.5 86 1019.9 0.0 W 0.0 1.5 0.6
06:46 15.8 13.5 86 1019.9 0.0 W 0.0 0.8 0.6
06:47 15.8 13.5 86 1019.8 0.0 W 0.0 0.8 0.6
06:48 15.8 13.5 86 1019.7 0.0 W 0.0 0.8 0.6
06:49 15.8 13.5 86 1019.8 0.0 W 0.0 0.8 0.6
06:51 15.8 13.5 86 1019.7 0.0 W 0.0 0.0 0.6
06:52 15.8 13.5 86 1019.8 0.0 W 0.0 0.0 0.6
06:53 15.8 13.5 86 1019.9 0.0 W 0.0 0.0 0.6
06:54 15.8 13.5 86 1019.7 0.0 W 0.0 0.0 0.6
06:55 15.8 13.5 86 1019.8 0.7 S 0.7 0.0 0.6
06:56 15.8 13.5 86 1019.8 0.0 S 0.7 0.0 0.6
06:57 15.8 13.5 86 1019.8 0.0 SE 0.7 0.0 0.6
06:58 15.8 13.5 86 1019.8 0.0 S 0.7 0.0 0.6
06:59 15.8 13.5 86 1019.8 0.0 S 0.7 0.0 0.6
07:00 15.8 13.5 86 1019.7 0.0 SE 0.7 0.0 0.6
07:01 15.8 13.5 86 1019.7 0.0 SE 0.7 0.0 0.6
07:02 15.8 13.5 86 1019.7 0.0 SE 0.7 0.0 0.6
07:03 15.8 13.5 86 1019.9 0.0 SE 0.7 0.0 0.6
07:04 15.8 13.5 86 1019.6 0.0 SE 0.7 0.0 0.6
07:05 15.8 13.5 86 1019.7 0.0 SE 0.0 0.0 0.6
07:06 15.8 13.5 86 1019.6 0.0 S 0.0 0.0 0.6
07:08 15.8 13.5 86 1019.6 0.0 SE 0.0 0.0 0.6
07:09 15.8 13.5 86 1019.6 0.0 SE 0.0 0.0 0.6
07:10 15.8 13.5 86 1019.8 0.0 SE 0.0 0.0 0.6
07:11 15.8 13.5 86 1019.8 0.0 SE 0.0 0.0 0.6
07:12 15.8 13.5 86 1019.8 0.0 SE 0.0 0.0 0.6
07:13 15.8 13.5 86 1019.8 0.0 SE 0.0 0.0 0.6
07:14 15.9 13.7 87 1019.7 0.0 SE 0.0 0.0 0.6
07:15 15.9 13.7 87 1019.8 0.0 SE 0.0 0.0 0.6
07:16 15.9 13.7 87 1019.9 0.0 SE 0.0 0.0 0.6
07:17 15.9 13.7 87 1019.9 0.0 SE 0.0 0.0 0.6
07:18 15.9 13.7 87 1019.9 0.0 SE 0.0 0.0 0.6
07:19 15.9 13.7 87 1020.0 0.0 SE 0.0 0.0 0.6
07:20 15.9 13.7 87 1019.9 0.0 SE 0.0 0.0 0.6
07:21 15.9 13.7 87 1019.9 0.0 SE 0.0 0.0 0.6
07:23 15.9 13.7 87 1019.8 0.0 SE 0.0 0.0 0.6
07:24 15.9 13.7 87 1019.9 0.0 SE 0.0 0.0 0.6
07:25 15.9 13.7 87 1019.9 0.0 SE 0.0 0.0 0.6
07:26 15.9 13.7 87 1019.9 0.0 SE 0.0 0.0 0.6
07:27 15.9 13.7 87 1019.8 0.0 SE 0.0 0.0 0.6
07:28 15.9 13.7 87 1020.0 0.0 SE 0.0 0.0 0.6
07:29 15.9 13.7 87 1020.0 0.0 SE 0.0 0.0 0.6
07:30 15.9 13.7 87 1019.9 0.0 SE 0.0 0.0 0.6
07:31 15.9 13.7 87 1019.9 0.0 SE 0.0 0.0 0.6
07:32 15.9 13.7 87 1020.1 0.0 SE 0.0 0.0 0.6
07:33 15.9 13.7 87 1020.1 0.0 SE 0.0 0.0 0.6
07:34 15.9 13.7 87 1020.0 0.0 SE 0.0 0.0 0.6
07:35 15.9 13.7 87 1019.9 0.0 SE 0.0 0.0 0.6
07:36 15.9 13.7 87 1019.9 0.0 SE 0.0 0.0 0.6
07:37 15.9 13.7 87 1019.9 0.0 SE 0.0 0.0 0.6
07:39 15.9 13.7 87 1020.0 0.0 SE 0.0 0.0 0.6
07:40 15.9 13.7 87 1020.0 0.0 SE 0.0 0.0 0.6
07:41 15.9 13.7 87 1020.0 0.0 SE 0.0 0.0 0.6
07:42 15.9 13.7 87 1020.0 0.0 SE 0.0 0.0 0.6
07:43 15.9 13.7 87 1020.0 0.0 SE 0.0 0.0 0.6
07:44 15.9 13.7 87 1019.8 0.0 SE 0.0 0.0 0.6
07:45 15.9 13.7 87 1019.9 0.0 SE 0.0 0.0 0.6
07:46 15.9 13.7 87 1019.9 0.0 SE 0.0 0.0 0.6
07:47 15.9 13.7 87 1020.0 0.0 SE 0.0 0.0 0.6
07:48 15.9 13.7 87 1020.0 0.0 SE 0.0 0.0 0.6
07:49 15.9 13.7 87 1020.0 0.0 SE 0.0 0.0 0.6
07:50 15.9 13.7 87 1019.9 0.0 SE 0.0 0.0 0.6
07:51 15.9 13.7 87 1020.1 0.0 SE 0.0 0.0 0.6
07:53 15.9 13.7 87 1020.0 0.0 SE 0.0 0.0 0.6
07:54 15.9 13.7 87 1020.0 0.0 SE 0.0 0.0 0.6
07:55 15.9 13.7 87 1020.0 0.0 SE 0.0 0.0 0.6
07:56 15.9 13.7 87 1020.0 0.0 SE 0.0 0.0 0.6
07:57 15.9 13.7 87 1020.1 0.0 SE 0.0 0.0 0.6
07:58 15.9 13.7 87 1020.1 0.0 SE 0.0 0.0 0.6
07:59 15.9 13.7 87 1020.2 0.0 SE 0.0 0.0 0.6
08:00 15.9 13.7 87 1020.1 0.0 SE 0.0 0.0 0.6
08:01 15.9 13.7 87 1020.0 0.0 SE 0.0 0.0 0.6
08:02 15.9 13.7 87 1020.3 0.0 SE 0.0 0.0 0.6
08:03 15.9 13.7 87 1020.3 0.0 SE 0.0 0.0 0.6
08:04 15.9 13.7 87 1020.3 0.0 SE 0.0 0.0 0.6
08:05 15.9 13.7 87 1020.3 0.0 SE 0.0 0.0 0.6
08:06 15.9 13.7 87 1020.2 0.0 SE 0.0 0.0 0.6
08:07 15.9 13.7 87 1020.2 0.0 SE 0.0 0.0 0.6
08:08 15.9 13.7 87 1020.2 0.0 SE 0.0 0.0 0.6
08:09 15.9 13.7 87 1020.1 0.0 SE 0.0 0.0 0.6
08:10 15.9 13.7 87 1020.2 0.0 SE 0.0 0.0 0.6
08:12 15.9 13.7 87 1020.2 0.0 SE 0.0 0.0 0.6
08:13 15.9 13.7 87 1020.2 0.0 SE 0.0 0.0 0.6
08:14 15.9 13.7 87 1020.3 0.0 SE 0.0 0.0 0.6
08:15 15.9 13.7 87 1020.2 0.0 SE 0.0 0.0 0.6
08:16 15.9 13.7 87 1020.0 0.0 SE 0.0 0.0 0.6
08:17 15.9 13.7 87 1020.1 0.0 SE 0.0 0.0 0.6
08:18 15.9 13.7 87 1020.1 0.0 SE 0.0 0.0 0.6
08:19 15.9 13.7 87 1020.1 0.0 SE 0.0 0.0 0.6
08:20 15.9 13.7 87 1020.0 0.0 SE 0.0 0.0 0.6
08:21 15.9 13.7 87 1020.1 0.0 SE 0.0 0.0 0.6
08:22 15.9 13.7 87 1020.0 0.0 SE 0.0 0.0 0.6
08:23 15.9 13.7 87 1020.2 0.0 SE 0.0 0.0 0.6
08:24 15.9 13.7 87 1020.3 0.0 SE 0.0 0.0 0.6
08:25 15.9 13.7 87 1020.2 0.0 SE 0.0 0.0 0.6
08:26 15.9 13.7 87 1020.2 0.0 SE 0.0 0.0 0.6
08:27 15.9 13.7 87 1020.0 0.0 SE 0.0 0.0 0.6
08:28 15.9 13.7 87 1020.2 0.0 SE 0.0 0.0 0.6
08:29 15.9 13.7 87 1020.2 0.0 SE 0.0 0.0 0.6
08:30 15.9 13.7 87 1020.1 0.0 SE 0.0 0.0 0.6
08:31 15.9 13.7 87 1020.1 0.0 SE 0.0 0.0 0.6
08:32 15.9 13.7 87 1020.1 0.0 SE 0.0 0.0 0.6
08:33 15.9 13.7 87 1020.0 0.0 SE 0.0 0.0 0.6
08:34 15.9 13.7 87 1020.2 0.0 SE 0.0 0.0 0.6
08:35 15.9 13.7 87 1020.2 0.0 SE 0.0 0.0 0.6
08:36 15.9 13.7 87 1020.2 0.0 SE 0.0 0.0 0.6
08:37 15.9 13.7 87 1020.0 0.0 SE 0.0 0.0 0.6
08:38 15.9 13.7 87 1020.1 0.0 SE 0.0 0.0 0.6
08:39 15.9 13.7 87 1020.2 0.0 SE 0.0 0.0 0.6
08:40 15.9 13.7 87 1020.3 0.0 SE 0.0 0.0 0.6
08:41 15.9 13.7 87 1020.2 0.0 SE 0.0 0.0 0.6
08:42 15.9 13.7 87 1020.3 0.0 SE 0.0 0.0 0.6
08:43 15.9 13.7 87 1020.3 0.0 SE 0.0 0.0 0.6
08:44 15.9 13.7 87 1020.3 0.0 SE 0.0 0.0 0.6
08:45 15.9 13.7 87 1020.5 0.0 SE 0.0 0.0 0.6
08:46 15.9 13.7 87 1020.4 0.0 SE 0.0 0.0 0.6
08:47 15.9 13.7 87 1020.5 0.0 SE 0.0 0.0 0.6
08:48 15.9 13.7 87 1020.4 0.0 SE 0.0 0.0 0.6
08:49 15.9 13.7 87 1020.4 0.0 SE 0.0 0.0 0.6
08:50 15.9 13.7 87 1020.4 0.0 SE 0.0 0.0 0.6
08:51 15.9 13.7 87 1020.4 0.0 SE 0.0 0.0 0.6
08:52 15.9 13.7 87 1020.5 0.0 SE 0.0 0.0 0.6
08:53 15.9 13.7 87 1020.4 0.0 SE 0.0 0.0 0.6
08:54 15.9 13.7 87 1020.5 0.0 SE 0.0 0.0 0.6
08:55 15.9 13.7 87 1020.5 0.0 SE 0.0 0.0 0.6
08:56 15.9 13.7 87 1020.5 0.0 SE 0.0 0.0 0.6
08:57 15.9 13.7 87 1020.5 0.0 SE 0.0 0.0 0.6
08:58 15.9 13.7 87 1020.7 0.0 SE 0.0 0.0 0.6
08:59 15.9 13.7 87 1020.6 0.0 SE 0.0 0.0 0.6
09:00 15.9 13.7 87 1020.8 0.0 SE 0.0 0.0 0.6
09:01 15.9 13.7 87 1020.6 0.0 SE 0.0 0.0 0.6
09:02 15.9 13.7 87 1020.7 0.0 SE 0.0 0.0 0.6
09:03 15.9 13.7 87 1020.8 0.0 SE 0.0 0.0 0.6
09:04 15.9 13.7 87 1020.7 0.0 SE 0.0 0.0 0.6
09:05 15.9 13.7 87 1020.7 0.0 SE 0.0 0.0 0.6
09:06 15.9 13.7 87 1020.8 0.0 SE 0.0 0.0 0.6
09:07 15.9 13.7 87 1020.7 0.0 SE 0.0 0.0 0.6
09:08 15.9 13.7 87 1020.8 0.0 SE 0.0 0.0 0.6
09:09 15.9 13.7 87 1020.7 0.0 SE 0.0 0.0 0.6
09:10 15.9 13.7 87 1020.7 0.0 SE 0.0 0.0 0.6
09:11 15.9 13.7 87 1020.7 0.0 SE 0.0 0.0 0.6
09:12 15.9 13.7 87 1020.8 0.0 SE 0.0 0.0 0.6
09:13 15.9 13.7 87 1020.7 0.0 SE 0.0 0.0 0.6
09:14 15.9 13.7 87 1020.6 0.0 SE 0.0 0.0 0.6
09:15 15.9 13.7 87 1020.6 0.0 SE 0.0 0.0 0.6
09:16 15.9 13.7 87 1020.6 0.0 SE 0.0 0.0 0.6
09:17 15.9 13.7 87 1020.6 0.0 SE 0.0 0.0 0.6
09:18 15.9 13.7 87 1020.5 0.0 SE 0.0 0.0 0.6
09:19 15.9 13.7 87 1020.5 0.0 SE 0.0 0.0 0.6
09:20 15.9 13.7 87 1020.5 0.0 SE 0.0 0.0 0.6
09:21 15.9 13.7 87 1020.5 0.0 SE 0.0 0.0 0.6
09:22 15.9 13.7 87 1020.5 0.0 SE 0.0 0.0 0.6
09:23 15.9 13.7 87 1020.5 0.0 SE 0.0 0.0 0.6
09:24 15.9 13.7 88 1020.6 0.0 SE 0.0 0.0 0.6
09:25 15.9 13.7 88 1020.5 0.0 SE 0.0 99.9 0.6
09:26 15.9 13.7 88 1020.5 0.0 SE 0.0 99.9 0.6
09:27 15.9 13.7 88 1020.7 0.0 SE 0.0 99.9 0.6
09:28 15.9 13.7 88 1020.6 0.0 SE 0.0 99.9 0.6
09:29 15.9 13.7 88 1020.6 0.0 SE 0.0 99.9 0.6
09:30 15.9 13.7 88 1020.8 0.0 SE 0.0 0.0 0.6
09:31 15.9 13.7 88 1020.8 0.0 SE 0.0 0.0 0.6
09:32 15.9 13.7 88 1021.0 0.0 SE 0.0 0.0 0.6
09:33 17.6 15.6 88 1020.8 8.3 S 8.3 0.0 0.6
09:34 17.6 15.6 88 1020.8 8.3 S 8.3 0.0 0.6
09:35 17.6 15.6 88 1020.8 8.3 S 8.3 0.0 0.6
09:36 17.6 15.6 88 1020.9 8.3 S 8.3 0.0 0.6
09:37 17.6 15.6 88 1020.9 8.3 S 8.3 0.0 0.6
09:38 17.6 15.6 88 1020.8 8.3 S 8.3 0.0 0.6
09:39 17.6 15.6 88 1020.9 8.3 S 8.3 0.0 0.6
09:40 17.6 15.6 88 1020.9 8.3 S 8.3 0.0 0.6
09:41 17.6 15.6 88 1021.0 8.3 S 8.3 0.0 0.6
09:42 17.6 15.6 88 1021.0 8.3 S 8.3 0.0 0.6
09:43 17.7 15.5 87 1020.8 9.8 SW 9.8 0.0 0.6
09:44 17.7 15.5 87 1020.9 9.8 SW 9.8 0.0 0.6
09:45 17.7 15.5 87 1020.8 9.8 SW 9.8 0.0 0.6
09:46 17.7 15.5 87 1020.8 9.8 SW 9.8 0.0 0.6
09:47 17.7 15.5 87 1020.7 9.8 SW 9.8 0.0 0.6
09:48 17.7 15.5 87 1020.7 9.8 SW 9.8 0.0 0.6
09:49 17.5 15.3 87 1020.7 8.3 SW 9.8 0.0 0.6
09:50 17.5 15.3 87 1020.7 8.3 SW 9.8 0.0 0.6
09:51 17.5 15.1 86 1020.9 7.6 S 9.8 0.0 0.6
09:52 17.5 15.1 86 1020.9 7.6 S 9.8 0.0 0.6
09:53 17.5 15.1 86 1020.9 8.3 W 9.8 0.0 0.6
09:54 17.5 15.1 86 1020.8 8.3 W 9.8 0.0 0.6
09:55 17.5 15.1 86 1020.9 8.3 W 9.8 0.0 0.6
09:56 17.5 15.1 86 1020.9 8.3 W 9.8 0.0 0.6
09:57 17.5 15.1 86 1020.9 8.3 W 9.8 0.0 0.6
09:58 17.5 15.1 86 1020.9 8.3 W 8.3 0.0 0.6
09:59 17.5 15.1 86 1021.0 8.3 W 8.3 0.0 0.6
10:00 17.5 15.1 86 1021.0 8.3 SW 8.3 0.0 0.6
10:01 17.5 15.1 86 1021.0 8.3 SW 8.3 0.0 0.6
10:02 17.5 15.1 86 1021.0 8.3 SW 8.3 0.0 0.6
10:03 17.5 15.1 86 1021.0 8.3 SW 8.3 0.0 0.6
10:04 17.5 15.1 86 1020.9 8.3 SW 8.3 0.0 0.6
10:05 17.5 15.1 86 1020.9 8.3 SW 8.3 0.0 0.6
10:06 17.5 15.1 86 1021.1 8.3 SW 8.3 0.0 0.6
10:07 17.5 15.1 86 1021.1 8.3 SW 8.3 0.0 0.6
10:08 17.7 15.3 86 1021.1 12.1 SW 12.1 0.0 0.6
10:09 17.7 15.3 86 1021.0 12.1 SW 12.1 0.0 0.6
10:10 17.7 15.3 86 1021.1 12.1 SW 12.1 0.0 0.6
10:11 17.7 15.3 86 1020.9 12.1 SW 12.1 0.0 0.6
10:12 17.7 15.3 86 1020.9 12.1 SW 12.1 0.0 0.6
10:13 17.7 15.3 86 1020.9 12.1 SW 12.1 0.0 0.6
10:14 17.7 15.2 85 1021.0 9.8 S 12.1 0.0 0.6
10:15 17.7 15.2 85 1020.9 9.8 S 12.1 0.0 0.6
10:16 17.7 15.2 85 1020.9 9.8 S 12.1 0.0 0.6
10:17 17.7 15.0 84 1021.0 9.2 E 12.1 0.0 0.6
10:18 17.7 15.0 84 1021.0 9.2 E 12.1 0.0 0.6
10:19 17.7 15.0 84 1021.1 7.6 S 12.1 0.0 0.6
10:20 17.7 15.0 84 1021.0 7.6 S 12.1 0.0 0.6
10:21 17.7 15.0 84 1021.1 7.6 S 12.1 0.0 0.6
10:22 17.7 15.0 84 1021.0 7.6 S 12.1 0.0 0.6
10:23 17.7 15.0 84 1021.1 7.6 S 12.1 0.0 0.6
10:24 17.7 14.8 83 1021.0 9.2 S 12.1 0.0 0.6
10:25 17.6 14.7 83 1021.0 12.1 S 12.1 0.0 0.6
10:26 17.7 14.8 83 1021.0 11.4 SW 12.1 0.0 0.6
10:27 17.7 14.8 83 1021.0 11.4 SW 12.1 0.0 0.6
10:28 17.6 14.5 82 1021.1 8.3 S 12.1 0.0 0.6
10:29 17.6 14.5 82 1021.2 10.7 S 12.1 0.0 0.6
10:30 17.6 14.5 82 1021.1 8.3 S 12.1 0.0 0.6
10:31 17.7 14.6 82 1021.1 9.2 S 12.1 0.0 0.6
10:32 17.7 14.6 82 1021.0 9.8 W 12.1 0.0 0.6
10:33 17.7 14.6 82 1021.3 9.8 W 12.1 0.0 0.6
10:34 17.7 14.6 82 1021.1 11.4 WSW 12.1 0.0 0.6
10:35 17.7 14.6 82 1021.1 10.7 SW 12.1 0.0 0.6
10:36 17.7 14.6 82 1021.0 10.7 SW 11.4 0.0 0.6
10:37 17.8 14.5 81 1021.0 9.8 SW 11.4 0.0 0.6
10:38 17.8 14.5 81 1021.2 13.0 S 13.0 0.0 0.6
10:39 17.9 14.6 81 1021.2 11.4 S 13.0 0.0 0.6
10:40 17.9 14.6 81 1021.3 11.4 S 13.0 0.0 0.6
10:41 18.0 14.5 80 1021.1 8.3 SW 13.0 0.0 0.6
10:42 18.1 14.8 81 1021.3 11.4 SW 13.0 0.0 0.6
10:43 18.2 14.7 80 1021.2 13.0 S 13.0 0.0 0.6
10:44 18.2 14.7 80 1021.2 8.3 S 13.0 0.0 0.6
10:45 18.3 14.8 80 1021.3 12.1 S 13.0 0.0 0.6
10:46 18.3 14.6 79 1021.4 10.7 S 13.0 0.0 0.6
10:47 18.3 14.6 79 1021.4 10.7 S 13.0 0.0 0.6
10:48 18.4 14.7 79 1021.3 9.8 S 13.0 0.0 0.6
10:49 18.4 14.5 78 1021.5 11.4 S 13.0 0.0 0.6
10:50 18.5 14.4 77 1021.4 10.7 SW 13.0 0.0 0.6
10:51 18.5 14.4 77 1021.4 11.4 SE 13.0 0.0 0.6
10:52 18.5 14.2 76 1021.4 10.7 WSW 13.0 0.0 0.6
10:53 18.6 14.3 76 1021.3 9.2 SW 13.0 0.0 0.6
10:54 18.6 14.3 76 1021.2 9.8 SSW 12.1 0.0 0.6
10:55 18.7 14.4 76 1021.4 8.3 S 12.1 0.0 0.6
10:56 18.8 14.5 76 1021.3 9.2 S 11.4 0.0 0.6
10:57 18.9 14.6 76 1021.3 9.8 S 12.1 0.0 0.6
10:58 18.9 14.6 76 1021.3 11.4 SW 12.1 0.0 0.6
10:59 18.9 14.4 75 1021.2 13.0 S 13.0 0.0 0.6
11:00 19.0 14.5 75 1021.2 11.4 S 13.0 0.0 0.6
11:01 19.0 14.3 74 1021.2 11.4 S 13.0 0.0 0.6
11:02 19.0 14.3 74 1021.1 12.1 S 13.0 0.0 0.6
11:03 19.1 14.2 73 1021.3 12.1 S 13.0 0.0 0.6
11:04 19.1 14.2 73 1021.3 13.6 S 13.6 0.0 0.6
11:05 19.1 14.2 73 1021.3 11.4 S 13.6 0.0 0.6
11:06 19.1 14.2 73 1021.3 11.4 S 13.6 0.0 0.6
11:07 19.1 13.9 72 1021.5 8.3 S 13.6 0.0 0.6
11:08 19.2 14.0 72 1021.4 9.8 SSW 13.6 0.0 0.6
11:09 19.2 14.0 72 1021.3 13.0 S 13.6 0.0 0.6
11:10 19.2 14.0 72 1021.3 10.7 SW 13.6 0.0 0.6
11:11 19.3 13.9 71 1021.5 11.4 S 13.6 0.0 0.6
11:12 19.3 13.9 71 1021.3 11.4 S 13.6 0.0 0.6
11:13 19.4 14.0 71 1021.3 13.0 S 13.6 0.0 0.6
11:14 19.4 14.0 71 1021.5 12.1 SE 13.0 0.0 0.6
11:15 19.5 14.1 71 1021.3 9.2 S 13.0 0.0 0.6
11:16 19.5 13.9 70 1021.2 9.8 S 13.0 0.0 0.6
11:17 19.6 14.0 70 1021.4 9.8 S 13.0 0.0 0.6
11:18 19.6 14.0 70 1021.3 9.8 SW 13.0 0.0 0.6
11:19 19.7 14.1 70 1021.3 13.6 S 13.6 0.0 0.6
11:20 19.6 13.8 69 1021.4 10.7 S 13.6 0.0 0.6
11:21 19.7 13.9 69 1021.3 9.2 S 13.6 0.0 0.6
11:22 19.7 13.9 69 1021.3 9.2 S 13.6 0.0 0.6
11:23 19.7 13.9 69 1021.2 10.7 S 13.6 0.0 0.6
11:24 19.8 13.7 68 1021.3 8.3 S 13.6 0.0 0.6
11:25 19.8 13.7 68 1021.3 6.9 S 13.6 0.0 0.6
11:26 19.9 13.6 67 1021.2 9.2 S 13.6 0.0 0.6
11:27 19.9 13.4 66 1021.2 10.7 S 13.6 0.0 0.6
11:28 20.0 13.2 65 1021.4 10.7 SW 13.6 0.0 0.6
11:30 20.0 13.0 64 1021.3 14.5 S 14.5 0.0 0.6
11:31 20.0 13.0 64 1021.3 13.6 SW 14.5 0.0 0.6
11:32 20.0 13.0 64 1021.4 12.1 S 14.5 0.0 0.6
11:33 20.0 12.8 63 1021.2 9.2 S 14.5 0.0 0.6
11:34 20.0 12.8 63 1021.3 12.1 SW 14.5 0.0 0.6
11:35 20.0 12.8 63 1021.1 13.0 S 14.5 0.0 0.6
11:36 20.0 12.8 63 1021.4 9.8 S 14.5 0.0 0.6
11:37 20.0 12.8 63 1021.3 11.4 SE 14.5 0.0 0.6
11:38 20.0 12.5 62 1021.6 13.6 S 14.5 0.0 0.6
11:39 20.0 12.5 62 1021.3 12.1 SE 14.5 0.0 0.6
11:40 20.0 12.8 63 1021.3 7.6 SE 14.5 0.0 0.6
11:41 20.1 13.1 64 1021.1 8.3 SW 13.6 0.0 0.6
11:42 20.1 12.8 63 1021.4 14.5 SW 14.5 0.0 0.6
11:43 20.1 12.6 62 1021.1 15.9 S 15.9 0.0 0.6
11:44 20.1 12.4 61 1021.1 12.1 S 15.9 0.0 0.6
11:45 20.1 12.4 61 1021.2 13.6 SW 15.9 0.0 0.6
11:47 20.1 12.4 61 1021.2 13.6 SW 15.9 0.0 0.6
11:48 20.1 12.4 61 1021.2 13.6 SW 15.9 0.0 0.6
11:49 20.3 12.8 62 1021.1 14.5 S 15.9 0.0 0.6
11:50 20.3 12.8 62 1021.1 15.2 S 15.9 0.0 0.6
11:51 20.3 12.8 62 1021.1 9.8 S 15.9 0.0 0.6
11:52 20.3 12.8 62 1021.2 14.5 S 15.9 0.0 0.6
11:53 20.2 12.7 62 1021.0 9.8 S 15.9 0.0 0.6
11:54 20.2 12.7 62 1021.0 9.8 S 15.2 0.0 0.6
11:55 20.3 12.8 62 1021.2 11.4 SW 15.2 0.0 0.6
11:56 20.3 12.8 62 1021.2 15.9 SE 15.9 0.0 0.6
11:57 20.3 12.8 62 1021.2 13.0 S 15.9 0.0 0.6
11:58 20.3 12.5 61 1021.1 12.1 E 15.9 0.0 0.6
11:59 20.3 12.5 61 1021.1 11.4 S 15.9 0.0 0.6
12:00 20.3 12.8 62 1021.1 14.5 SW 15.9 0.0 0.6
12:01 20.3 13.0 63 1021.1 13.0 SW 15.9 0.0 0.6
12:03 20.4 12.9 62 1021.1 12.1 SE 15.9 0.0 0.6
12:04 20.4 12.9 62 1021.2 12.1 SSW 15.9 0.0 0.6
12:05 20.4 12.6 61 1021.0 12.1 S 15.9 0.0 0.6
12:06 20.4 13.1 63 1021.1 10.7 S 14.5 0.0 0.6
12:07 20.5 13.2 63 1021.0 12.1 S 14.5 0.0 0.6
12:08 20.5 13.0 62 1021.1 15.2 S 15.2 0.0 0.6
12:09 20.5 12.7 61 1021.1 14.5 S 15.2 0.0 0.6
12:10 20.6 12.8 61 1021.2 13.0 S 15.2 0.0 0.6
12:11 20.5 12.7 61 1021.0 12.1 S 15.2 0.0 0.6
12:12 20.5 12.7 61 1021.0 12.1 S 15.2 0.0 0.6
12:13 20.6 12.6 60 1021.2 13.6 S 15.2 0.0 0.6
12:14 20.6 12.6 60 1021.3 13.6 S 15.2 0.0 0.6
12:15 20.7 13.2 62 1021.2 11.4 S 15.2 0.0 0.6
12:17 20.8 13.0 61 1021.0 12.1 S 15.2 0.0 0.6
12:18 20.8 13.0 61 1021.1 11.4 SE 14.5 0.0 0.6
12:19 20.8 13.0 61 1021.2 13.6 SW 13.6 0.0 0.6
12:20 20.8 13.0 61 1021.3 13.6 SW 13.6 0.0 0.6
12:21 20.6 12.3 59 1021.3 15.2 S 16.8 0.0 0.6
12:22 20.6 12.3 59 1021.3 15.2 S 16.8 0.0 0.6
12:23 20.4 12.1 59 1021.5 12.1 S 16.8 0.0 0.6
12:24 20.3 12.0 59 1021.5 12.1 S 16.8 0.0 0.6
12:25 20.3 12.3 60 1021.3 11.4 S 16.8 0.0 0.6
12:26 20.3 12.3 60 1021.3 11.4 WSW 16.8 0.0 0.6
12:27 20.2 12.5 61 1021.2 12.1 S 16.8 0.0 0.6
12:28 20.2 12.5 61 1021.2 12.1 S 16.8 0.0 0.6
12:29 20.2 12.5 61 1021.3 12.1 S 16.8 0.0 0.6
12:30 20.2 12.5 61 1021.2 12.1 S 16.8 0.0 0.6
12:31 20.1 12.4 61 1021.3 13.6 S 15.2 0.0 0.6
12:32 20.1 12.4 61 1021.2 13.6 S 13.6 0.0 0.6
12:33 20.2 12.5 61 1021.2 14.5 SE 14.5 0.0 0.6
12:34 20.2 12.5 61 1021.3 14.5 SE 14.5 0.0 0.6
12:35 20.3 12.5 61 1021.2 13.0 S 14.5 0.0 0.6
12:36 20.3 12.5 61 1021.1 13.0 S 14.5 0.0 0.6
12:37 20.3 12.5 61 1021.1 11.4 S 14.5 0.0 0.6
12:38 20.3 12.5 61 1021.1 10.7 SW 14.5 0.0 0.6
12:39 20.4 12.6 61 1021.1 14.5 S 14.5 0.0 0.6
12:40 20.4 12.6 61 1021.1 15.2 SE 15.2 0.0 0.6
12:41 20.4 12.4 60 1021.1 15.9 S 15.9 0.0 0.6
12:42 20.4 12.4 60 1021.0 13.0 S 15.9 0.0 0.6
12:43 20.5 12.7 61 1021.2 13.6 S 15.9 0.0 0.6
12:44 20.5 12.5 60 1021.2 15.9 SW 15.9 0.0 0.6
12:45 20.5 12.5 60 1021.2 13.6 S 15.9 0.0 0.6
12:47 20.5 12.5 60 1021.3 13.0 S 15.9 0.0 0.6
12:48 20.5 12.5 60 1021.5 16.8 SW 16.8 0.0 0.6
12:49 20.5 12.5 60 1021.2 12.1 SW 16.8 0.0 0.6
12:50 20.5 12.5 60 1021.4 12.1 SW 16.8 0.0 0.6
12:51 20.6 12.8 61 1021.4 16.8 E 16.8 0.0 0.6
12:52 20.6 12.8 61 1021.3 13.0 SW 16.8 0.0 0.6
12:53 20.6 12.8 61 1021.3 10.7 SW 16.8 0.0 0.6
12:54 20.6 12.8 61 1021.4 10.7 SW 16.8 0.0 0.6
12:55 20.8 13.0 61 1021.5 15.2 SE 16.8 0.0 0.6
12:56 20.7 12.9 61 1021.5 11.4 SE 16.8 0.0 0.6
12:57 20.8 13.0 61 1021.5 14.5 NNW 16.8 0.0 0.6
12:58 20.8 13.0 61 1021.5 12.1 NW 16.8 0.0 0.6
12:59 20.8 13.0 61 1021.4 12.1 SW 16.8 0.0 0.6
13:00 20.8 13.0 61 1021.5 12.1 SW 16.8 0.0 0.6
13:01 20.8 13.0 61 1021.4 12.1 SW 16.8 0.0 0.6
13:03 20.8 12.8 60 1021.6 13.6 WSW 15.9 0.0 0.6
13:04 20.8 12.8 60 1021.6 14.5 S 15.9 0.0 0.6
13:05 20.9 12.9 60 1021.4 13.6 S 15.2 0.0 0.6
13:06 20.9 12.9 60 1021.5 13.6 S 15.2 0.0 0.6
13:07 20.9 12.9 60 1021.3 13.6 S 15.2 0.0 0.6
13:08 20.9 12.9 60 1021.4 15.9 SW 15.9 0.0 0.6
13:09 20.9 13.1 61 1021.4 13.0 S 15.9 0.0 0.6
13:10 20.9 12.9 60 1021.4 11.4 SW 15.9 0.0 0.6
13:11 20.9 12.9 60 1021.4 11.4 SW 15.9 0.0 0.6
13:12 20.9 12.9 60 1021.5 10.7 S 15.9 0.0 0.6
13:13 20.9 12.9 60 1021.4 10.7 S 15.9 0.0 0.6
13:14 20.9 12.9 60 1021.5 10.7 S 15.9 0.0 0.6
13:15 20.9 12.9 60 1021.5 10.7 S 15.9 0.0 0.6
13:16 20.9 12.9 60 1021.5 10.7 S 15.9 0.0 0.6
13:17 21.0 13.0 60 1021.5 15.9 S 15.9 0.0 0.6
13:18 21.0 12.7 59 1021.5 15.9 WSW 15.9 0.0 0.6
13:19 21.0 13.0 60 1021.5 18.3 S 18.3 0.0 0.6
13:20 21.0 13.0 60 1021.6 13.6 S 18.3 0.0 0.6
13:22 21.1 12.8 59 1021.4 13.6 N 18.3 0.0 0.6
13:23 21.1 12.8 59 1021.6 13.6 N 18.3 0.0 0.6
13:24 21.1 12.8 59 1021.5 13.6 N 18.3 0.0 0.6
13:25 21.1 12.8 59 1021.5 13.6 N 18.3 0.0 0.6
13:26 21.1 12.8 59 1021.7 13.6 N 18.3 0.0 0.6
13:27 21.4 13.6 61 1021.6 12.1 SW 18.3 0.0 0.6
13:28 21.4 13.6 61 1021.7 12.1 SW 18.3 0.0 0.6
13:29 21.5 13.4 60 1021.6 11.4 S 18.3 0.0 0.6
13:30 21.5 13.4 60 1021.6 11.4 S 13.6 0.0 0.6
13:31 21.6 13.3 59 1021.5 15.9 SW 15.9 0.0 0.6
13:32 21.6 13.3 59 1021.5 15.9 SW 15.9 0.0 0.6
13:33 21.6 13.3 59 1021.8 15.9 SW 15.9 0.0 0.6
13:34 21.6 13.3 59 1021.7 15.9 SW 15.9 0.0 0.6
13:35 21.6 13.3 59 1021.6 15.9 SW 15.9 0.0 0.6
13:36 21.6 13.3 59 1021.6 15.9 SW 15.9 0.0 0.6
13:38 21.6 13.3 59 1021.8 15.9 SW 15.9 0.0 0.6
13:39 21.5 13.2 59 1021.7 15.9 S 15.9 0.0 0.6
13:40 21.5 13.2 59 1021.7 15.9 S 15.9 0.0 0.6
13:41 21.5 13.2 59 1021.8 15.9 S 15.9 0.0 0.6
13:42 21.5 13.2 59 1021.7 15.9 S 15.9 0.0 0.6
13:43 21.5 13.2 59 1021.5 15.9 S 15.9 0.0 0.6
13:44 21.5 13.2 59 1021.5 15.9 S 15.9 0.0 0.6
13:45 21.5 13.2 59 1021.6 15.9 S 15.9 0.0 0.6
13:46 21.5 13.2 59 1021.5 15.9 S 15.9 0.0 0.6
13:47 21.5 13.2 59 1021.5 15.9 S 15.9 0.0 0.6
13:48 21.5 13.2 59 1021.6 15.9 S 15.9 0.0 0.6
13:49 21.5 13.2 59 1021.5 15.9 S 15.9 0.0 0.6
13:50 21.5 13.2 59 1021.7 15.9 S 15.9 0.0 0.6
13:51 21.5 13.2 59 1021.7 15.9 S 15.9 0.0 0.6
13:53 21.5 13.2 59 1021.5 15.9 S 15.9 0.0 0.6
13:54 21.5 13.2 59 1021.6 15.9 S 15.9 0.0 0.6
13:55 21.5 13.2 59 1021.5 15.9 S 15.9 0.0 0.6
13:56 21.5 13.2 59 1021.6 15.9 S 15.9 0.0 0.6
13:57 21.5 13.2 59 1021.7 15.9 S 15.9 0.0 0.6
13:58 21.5 13.2 59 1021.5 15.9 S 15.9 0.0 0.6
13:59 21.5 13.2 59 1021.5 15.9 S 15.9 0.0 0.6
14:00 21.5 13.2 59 1021.6 15.9 S 15.9 0.0 0.6
14:01 21.5 13.2 59 1021.5 15.9 S 15.9 0.0 0.6
14:02 21.5 13.2 59 1021.6 15.9 S 15.9 0.0 0.6
14:03 21.5 13.2 59 1021.7 15.9 S 15.9 0.0 0.6
14:04 21.5 13.2 59 1021.6 15.9 S 15.9 0.0 0.6
14:05 21.5 13.2 59 1021.7 15.9 S 15.9 0.0 0.6
14:06 21.5 13.2 59 1021.5 15.9 S 15.9 0.0 0.6
14:08 20.6 13.3 63 1021.7 15.2 NE 15.2 0.0 0.6
14:09 20.6 13.3 63 1021.6 10.7 SW 15.2 0.0 0.6
14:10 20.7 13.9 65 1021.5 13.0 S 15.2 0.0 0.6
14:11 20.8 13.8 64 1021.5 13.6 ESE 15.2 0.0 0.6
14:12 20.9 13.6 63 1021.6 15.9 S 15.9 0.0 0.6
14:13 20.9 13.6 63 1021.6 19.0 S 19.0 0.0 0.6
14:14 20.9 13.6 63 1021.8 19.0 S 19.0 0.0 0.6
14:15 20.9 13.4 62 1021.6 14.5 S 19.0 0.0 0.6
14:16 20.9 13.6 63 1021.8 13.0 SW 19.0 0.0 0.6
14:17 20.9 13.4 62 1021.5 14.5 S 19.0 0.0 0.6
14:18 20.9 13.4 62 1021.7 14.5 S 19.0 0.0 0.6
14:19 20.9 13.4 62 1021.7 14.5 S 19.0 0.0 0.6
14:20 20.9 13.4 62 1021.6 14.5 S 19.0 0.0 0.6
14:21 20.9 13.4 62 1021.6 14.5 S 19.0 0.0 0.6
14:23 20.9 13.4 62 1021.7 14.5 S 19.0 0.0 0.6
14:24 20.9 13.4 62 1021.7 14.5 S 14.5 0.0 0.6
14:25 21.3 13.5 61 1021.6 15.9 S 15.9 0.0 0.6
14:26 21.3 13.5 61 1021.8 15.9 S 15.9 0.0 0.6
14:27 21.3 13.5 61 1021.7 15.9 S 15.9 0.0 0.6
14:28 21.3 13.5 61 1021.9 15.9 S 15.9 0.0 0.6
14:29 21.3 13.5 61 1021.8 15.9 S 15.9 0.0 0.6
14:30 21.3 13.5 61 1022.0 15.9 S 15.9 0.0 0.6
14:31 21.3 13.5 61 1021.9 15.9 S 15.9 0.0 0.6
14:32 21.3 13.5 61 1021.9 15.9 S 15.9 0.0 0.6
14:33 21.3 13.5 61 1021.9 15.9 S 15.9 0.0 0.6
14:34 21.0 13.5 62 1021.9 11.4 SW 15.9 0.0 0.6
14:35 21.0 13.5 62 1021.7 11.4 SW 15.9 0.0 0.6
14:36 21.0 13.5 62 1022.0 11.4 SW 15.9 0.0 0.6
14:37 21.0 13.5 62 1021.6 11.4 SW 15.9 0.0 0.6
14:39 21.1 13.5 62 1021.8 11.4 SW 15.9 0.0 0.6
14:40 21.1 13.5 62 1021.8 13.6 SE 15.9 0.0 0.6
14:41 21.0 13.5 62 1021.7 15.9 S 15.9 0.0 0.6
14:42 21.0 13.5 62 1021.7 15.9 S 15.9 0.0 0.6
14:43 21.0 13.5 62 1021.8 12.1 S 15.9 0.0 0.6
14:44 21.0 13.5 62 1021.7 12.1 S 15.9 0.0 0.6
14:45 21.0 13.5 62 1021.8 12.1 S 15.9 0.0 0.6
14:46 21.0 13.5 62 1021.8 12.1 S 15.9 0.0 0.6
14:47 21.0 13.5 62 1021.7 12.1 S 15.9 0.0 0.6
14:48 21.0 13.5 62 1021.7 12.1 S 15.9 0.0 0.6
14:49 21.0 13.5 62 1021.7 12.1 S 15.9 0.0 0.6
14:50 21.0 13.5 62 1021.7 12.1 S 15.9 0.0 0.6
14:51 21.0 13.5 62 1021.7 12.1 S 15.9 0.0 0.6
14:52 21.2 13.4 61 1021.7 15.2 S 15.9 0.0 0.6
14:54 21.3 13.7 62 1021.6 13.0 S 15.2 0.0 0.6
14:55 21.3 13.5 61 1021.6 19.0 S 19.0 0.0 0.6
14:56 21.3 13.5 61 1021.5 19.0 S 19.0 0.0 0.6
14:57 21.3 13.7 62 1021.7 15.2 S 19.0 0.0 0.6
14:58 21.3 13.7 62 1021.5 15.2 S 19.0 0.0 0.6
14:59 21.3 13.7 62 1021.5 15.2 S 19.0 0.0 0.6
15:00 21.3 13.7 62 1021.6 15.2 S 19.0 0.0 0.6
15:01 21.3 13.7 62 1021.6 15.2 S 19.0 0.0 0.6
15:02 21.3 13.7 62 1021.6 15.2 S 19.0 0.0 0.6
15:03 21.3 13.7 62 1021.6 15.2 S 19.0 0.0 0.6
15:04 21.3 13.7 62 1021.8 15.2 S 19.0 0.0 0.6
15:05 21.3 13.7 62 1021.8 14.5 SW 19.0 0.0 0.6
15:06 21.2 13.6 62 1021.5 18.3 S 19.0 0.0 0.6
15:07 21.2 13.6 62 1021.6 15.2 S 19.0 0.0 0.6
15:08 21.2 13.6 62 1021.5 15.2 S 18.3 0.0 0.6
15:09 21.3 14.2 64 1021.5 13.6 SW 18.3 0.0 0.6
15:10 21.3 14.2 64 1021.7 13.6 SW 18.3 0.0 0.6
15:11 21.3 14.2 64 1021.5 13.6 SW 18.3 0.0 0.6
15:12 21.2 13.6 62 1021.6 16.8 S 18.3 0.0 0.6
15:14 21.1 13.8 63 1021.6 15.2 S 18.3 0.0 0.6
15:15 21.0 13.7 63 1021.6 19.7 S 19.7 0.0 0.6
15:16 21.0 13.7 63 1021.5 17.4 S 19.7 0.0 0.6
15:17 20.9 13.8 64 1021.5 13.6 S 19.7 0.0 0.6
15:18 20.9 13.8 64 1021.6 15.2 S 19.7 0.0 0.6
15:19 20.9 13.8 64 1021.5 15.2 S 19.7 0.0 0.6
15:20 20.9 13.8 64 1021.4 15.2 S 19.7 0.0 0.6
15:21 20.9 13.8 64 1021.5 15.2 S 19.7 0.0 0.6
15:22 20.9 13.8 64 1021.5 15.2 S 19.7 0.0 0.6
15:23 20.9 13.8 64 1021.4 15.2 S 19.7 0.0 0.6
15:24 20.8 13.8 64 1021.5 16.8 S 19.7 0.0 0.6
15:25 20.7 13.7 64 1021.5 13.6 S 19.7 0.0 0.6
15:26 20.7 13.7 64 1021.5 17.4 SSW 17.4 0.0 0.6
15:27 20.6 13.6 64 1021.5 15.2 WSW 17.4 0.0 0.6
15:29 20.5 13.7 65 1021.5 12.1 SW 17.4 0.0 0.6
15:30 20.5 13.7 65 1021.4 13.6 S 17.4 0.0 0.6
15:31 20.5 13.7 65 1021.4 13.0 S 17.4 0.0 0.6
15:32 20.5 13.7 65 1021.4 12.1 W 17.4 0.0 0.6
15:33 20.4 13.8 66 1021.6 14.5 S 17.4 0.0 0.6
15:34 20.4 13.8 66 1021.5 14.5 S 17.4 0.0 0.6
15:35 20.4 13.8 66 1021.5 14.5 SW 17.4 0.0 0.6
15:36 20.4 13.8 66 1021.7 14.5 NW 15.2 0.0 0.6
15:37 20.3 13.8 66 1021.6 15.2 SE 15.2 0.0 0.6
15:38 20.3 13.8 66 1021.5 15.2 SE 15.2 0.0 0.6
15:39 20.3 13.8 66 1021.4 12.1 S 15.2 0.0 0.6
15:40 20.2 13.7 66 1021.5 11.4 S 15.2 0.0 0.6
15:41 20.2 13.7 66 1021.5 11.4 S 15.2 0.0 0.6
15:42 20.1 13.8 67 1021.5 19.7 SSW 19.7 0.0 0.6
15:43 20.1 13.8 67 1021.3 15.2 S 19.7 0.0 0.6
15:45 20.0 13.7 67 1021.7 15.9 S 19.7 0.0 0.6
15:46 20.0 13.7 67 1021.5 14.5 S 19.7 0.0 0.6
15:47 20.0 13.7 67 1021.5 14.5 SW 19.7 0.0 0.6
15:48 19.9 13.6 67 1021.4 12.1 SE 19.7 0.0 0.6
15:49 19.8 13.5 67 1021.5 17.4 S 19.7 0.0 0.6
15:50 19.8 13.5 67 1021.5 17.4 S 19.7 0.0 0.6
15:51 19.8 13.5 67 1021.5 14.5 S 19.7 0.0 0.6
15:52 19.7 13.4 67 1021.5 18.3 S 19.7 0.0 0.6
15:53 19.6 13.5 68 1021.7 20.6 SE 20.6 0.0 0.6
15:54 19.6 13.3 67 1021.5 17.4 S 20.6 0.0 0.6
15:55 19.6 13.8 69 1021.6 11.4 S 20.6 0.0 0.6
15:56 19.7 14.1 70 1021.6 10.7 SW 20.6 0.0 0.6
15:57 19.8 14.2 70 1021.6 15.2 S 20.6 0.0 0.6
15:58 19.7 13.9 69 1021.5 10.7 SE 20.6 0.0 0.6
15:59 19.8 14.0 69 1021.5 13.0 SE 20.6 0.0 0.6
16:01 19.9 14.1 69 1021.7 16.8 S 20.6 0.0 0.6
16:02 19.9 14.1 69 1021.5 11.4 S 20.6 0.0 0.6
16:03 19.9 14.1 69 1021.6 11.4 SW 17.4 0.0 0.6
16:04 19.9 14.1 69 1021.7 15.2 SSW 16.8 0.0 0.6
16:05 19.8 14.0 69 1021.5 11.4 S 16.8 0.0 0.6
16:06 19.8 14.0 69 1021.5 11.4 S 16.8 0.0 0.6
16:07 19.8 14.0 69 1021.6 13.6 SE 16.8 0.0 0.6
16:08 19.8 14.0 69 1021.8 14.5 S 16.8 0.0 0.6
16:09 19.8 14.0 69 1021.6 13.0 S 16.8 0.0 0.6
16:10 19.8 14.0 69 1021.7 13.0 S 16.8 0.0 0.6
16:11 19.8 14.0 69 1021.6 17.4 SSW 17.4 0.0 0.6
16:12 19.7 13.9 69 1021.5 14.5 S 17.4 0.0 0.6
16:13 19.7 13.9 69 1021.6 9.8 S 17.4 0.0 0.6
16:14 19.7 13.9 69 1021.7 11.4 SE 17.4 0.0 0.6
16:15 19.7 13.9 69 1021.7 15.9 S 17.4 0.0 0.6
16:17 19.6 13.8 69 1021.5 12.1 S 17.4 0.0 0.6
16:18 19.6 13.8 69 1021.6 12.1 S 17.4 0.0 0.6
16:19 19.6 13.8 69 1021.5 15.2 S 17.4 0.0 0.6
16:20 19.6 13.8 69 1021.7 19.0 S 19.0 0.0 0.6
16:21 19.6 13.8 69 1021.5 19.0 S 19.0 0.0 0.6
16:22 19.6 13.8 69 1021.7 14.5 SW 19.0 0.0 0.6
16:23 19.5 13.7 69 1021.6 14.5 S 19.0 0.0 0.6
16:24 19.5 13.7 69 1021.7 13.0 S 19.0 0.0 0.6
16:25 19.5 13.7 69 1021.6 17.4 S 19.0 0.0 0.6
16:26 19.5 13.7 69 1021.5 13.0 S 19.0 0.0 0.6
16:27 19.5 13.7 69 1021.4 16.8 S 20.6 0.0 0.6
16:28 19.5 13.7 69 1021.5 14.5 SW 20.6 0.0 0.6
16:29 19.5 13.7 69 1021.5 18.3 SW 20.6 0.0 0.6
16:30 19.5 13.7 69 1021.4 14.5 S 20.6 0.0 0.6
16:31 19.5 13.7 69 1021.4 20.6 SW 20.6 0.0 0.6
16:33 19.4 13.6 69 1021.7 16.8 SW 20.6 0.0 0.6
16:34 19.4 13.4 68 1021.4 14.5 S 20.6 0.0 0.6
16:35 19.4 13.4 68 1021.4 15.2 SSW 20.6 0.0 0.6
16:36 19.4 13.4 68 1021.4 15.2 SSW 20.6 0.0 0.6
16:37 19.4 13.6 69 1021.5 9.2 SW 20.6 0.0 0.6
16:38 19.4 13.6 69 1021.4 13.6 S 20.6 0.0 0.6
16:39 19.4 13.6 69 1021.5 14.5 S 20.6 0.0 0.6
16:40 19.4 13.6 69 1021.4 15.9 SW 20.6 0.0 0.6
16:41 19.4 13.8 70 1021.5 10.7 S 20.6 0.0 0.6
16:42 19.4 13.8 70 1021.4 13.6 S 19.0 0.0 0.6
16:43 19.4 13.8 70 1021.4 15.9 SW 19.0 0.0 0.6
16:44 19.4 13.8 70 1021.5 14.5 SE 15.9 0.0 0.6
16:45 19.4 13.8 70 1021.4 16.8 S 16.8 0.0 0.6
16:47 19.4 13.8 70 1021.5 16.8 SW 16.8 0.0 0.6
16:48 19.4 13.8 70 1021.4 11.4 S 18.3 0.0 0.6
16:49 19.4 13.8 70 1021.4 16.8 S 18.3 0.0 0.6
16:50 19.4 13.8 70 1021.3 17.4 SW 18.3 0.0 0.6
16:51 19.4 13.8 70 1021.3 16.8 S 18.3 0.0 0.6
16:52 19.4 13.8 70 1021.5 13.0 SW 18.3 0.0 0.6
16:53 19.4 13.8 70 1021.5 16.8 S 18.3 0.0 0.6
16:54 19.3 13.7 70 1021.5 13.6 SW 18.3 0.0 0.6
16:55 19.3 13.7 70 1021.2 19.0 S 19.0 0.0 0.6
16:56 19.3 13.7 70 1021.2 19.0 S 19.0 0.0 0.6
16:57 19.3 13.7 70 1021.3 12.1 SW 19.0 0.0 0.6
16:58 19.3 13.7 70 1021.5 14.5 S 19.0 0.0 0.6
16:59 19.2 13.6 70 1021.4 17.4 S 19.0 0.0 0.6
17:00 19.2 13.6 70 1021.2 16.8 SW 19.0 0.0 0.6
17:01 19.2 13.6 70 1021.3 22.8 S 22.8 0.0 0.6
17:03 19.2 13.8 71 1021.2 14.5 S 22.8 0.0 0.6
17:04 19.2 14.0 72 1021.3 13.0 S 22.8 0.0 0.6
17:05 19.3 14.1 72 1021.3 15.9 SE 22.8 0.0 0.6
17:06 19.3 14.1 72 1021.2 13.0 SW 22.8 0.0 0.6
17:07 19.4 14.2 72 1021.3 14.5 S 22.8 0.0 0.6
17:08 19.4 14.2 72 1021.2 9.8 S 22.8 0.0 0.6
17:09 19.5 14.3 72 1021.2 16.8 S 22.8 0.0 0.6
17:10 19.5 14.3 72 1021.2 16.8 S 22.8 0.0 0.6
17:11 19.5 14.1 71 1021.0 15.9 SW 22.8 0.0 0.6
17:12 19.4 14.0 71 1021.2 19.0 S 19.0 0.0 0.6
17:13 19.4 14.0 71 1021.0 17.4 S 19.0 0.0 0.6
17:14 19.4 14.0 71 1021.2 16.8 SW 19.0 0.0 0.6
17:15 19.4 14.0 71 1021.1 12.1 SE 19.0 0.0 0.6
17:16 19.4 14.0 71 1021.1 12.1 SE 19.0 0.0 0.6
17:17 19.4 14.0 71 1021.3 20.6 SE 20.6 0.0 0.6
17:18 19.4 14.2 72 1021.1 15.9 S 20.6 0.0 0.6
17:19 19.4 14.0 71 1021.1 13.0 S 20.6 0.0 0.6
17:20 19.3 14.1 72 1021.4 17.4 S 20.6 0.0 0.6
17:22 19.3 14.1 72 1021.1 16.8 S 20.6 0.0 0.6
17:23 19.3 13.9 71 1021.3 14.5 SW 20.6 0.0 0.6
17:24 19.2 14.0 72 1021.2 19.0 SW 20.6 0.0 0.6
17:25 19.2 14.0 72 1021.3 13.6 WSW 20.6 0.0 0.6
17:26 19.2 14.0 72 1021.2 15.9 S 20.6 0.0 0.6
17:27 19.2 14.0 72 1021.0 11.4 S 20.6 0.0 0.6
17:28 19.2 14.0 72 1021.1 15.9 S 19.0 0.0 0.6
17:29 19.2 14.0 72 1021.3 13.6 S 19.0 0.0 0.6
17:30 19.2 14.0 72 1021.2 15.9 S 19.0 0.0 0.6
17:31 19.2 14.0 72 1021.2 16.8 S 19.0 0.0 0.6
17:32 19.1 13.9 72 1021.2 12.1 SE 19.0 0.0 0.6
17:33 19.1 13.9 72 1021.3 15.9 S 19.0 0.0 0.6
17:34 19.1 13.9 72 1021.3 13.6 SW 19.0 0.0 0.6
17:35 19.1 13.9 72 1021.3 13.0 SW 16.8 0.0 0.6
17:37 19.0 13.8 72 1021.4 16.8 S 16.8 0.0 0.6
17:38 19.0 13.8 72 1021.5 13.6 S 16.8 0.0 0.6
17:39 19.0 13.8 72 1021.4 13.6 S 16.8 0.0 0.6
17:40 19.0 14.1 73 1021.1 11.4 SW 16.8 0.0 0.6
17:41 19.0 14.1 73 1021.2 9.2 S 16.8 0.0 0.6
17:42 19.0 14.1 73 1021.2 9.2 S 16.8 0.0 0.6
17:43 18.9 14.0 73 1021.3 11.4 S 16.8 0.0 0.6
17:44 18.9 14.0 73 1021.3 12.1 SE 16.8 0.0 0.6
17:45 18.9 14.0 73 1021.4 13.6 S 16.8 0.0 0.6
17:46 18.9 14.0 73 1021.4 15.9 S 16.8 0.0 0.6
17:47 18.9 14.0 73 1021.4 10.7 SW 16.8 0.0 0.6
17:48 18.9 14.0 73 1021.3 20.6 SE 20.6 0.0 0.6
17:49 18.8 13.9 73 1021.2 15.9 S 20.6 0.0 0.6
17:50 18.8 13.9 73 1021.5 16.8 S 20.6 0.0 0.6
17:51 18.8 13.9 73 1021.5 18.3 SE 20.6 0.0 0.6
17:53 18.8 13.9 73 1021.3 14.5 SSW 20.6 0.0 0.6
17:54 18.8 14.1 74 1021.3 13.6 SW 20.6 0.0 0.6
17:55 18.8 14.1 74 1021.3 16.8 S 20.6 0.0 0.6
17:56 18.8 14.1 74 1021.3 16.8 SSE 20.6 0.0 0.6
17:57 18.8 14.1 74 1021.3 16.8 S 20.6 0.0 0.6
17:58 18.8 14.1 74 1021.2 18.3 S 20.6 0.0 0.6
17:59 18.7 14.0 74 1021.2 15.2 S 18.3 0.0 0.6
18:00 18.7 14.0 74 1021.3 12.1 SE 18.3 0.0 0.6
18:01 18.7 14.0 74 1021.2 12.1 SE 18.3 0.0 0.6
18:02 18.7 14.0 74 1021.1 14.5 S 18.3 0.0 0.6
18:03 18.8 14.1 74 1021.2 15.9 S 18.3 0.0 0.6
18:04 18.8 14.1 74 1021.1 15.2 S 18.3 0.0 0.6
18:05 18.8 14.3 75 1021.1 14.5 S 18.3 0.0 0.6
18:06 18.9 14.4 75 1021.2 17.4 S 18.3 0.0 0.6
18:07 18.9 14.4 75 1021.2 14.5 S 18.3 0.0 0.6
18:09 19.1 14.6 75 1021.2 15.9 S 17.4 0.0 0.6
18:10 19.1 14.6 75 1021.2 13.6 SE 17.4 0.0 0.6
18:11 19.1 14.6 75 1021.2 13.0 S 17.4 0.0 0.6
18:12 19.2 14.7 75 1021.1 13.6 SW 17.4 0.0 0.6
18:13 19.2 14.7 75 1021.0 16.8 S 17.4 0.0 0.6
18:14 19.2 14.7 75 1021.2 18.3 S 18.3 0.0 0.6
18:15 19.2 14.7 75 1021.0 13.0 S 18.3 0.0 0.6
18:16 19.2 14.5 74 1021.1 15.2 S 18.3 0.0 0.6
18:17 19.1 14.6 75 1021.1 13.6 SW 18.3 0.0 0.6
18:18 19.1 14.4 74 1021.1 13.6 SW 18.3 0.0 0.6
18:19 19.1 14.4 74 1021.2 13.6 S 18.3 0.0 0.6
18:20 19.1 14.4 74 1021.2 13.6 SE 18.3 0.0 0.6
18:21 19.0 14.3 74 1021.2 9.8 W 18.3 0.0 0.6
18:22 19.0 14.3 74 1021.2 17.4 S 18.3 0.0 0.6
18:23 19.0 14.3 74 1021.1 12.1 S 18.3 0.0 0.6
18:25 19.0 14.3 74 1021.2 14.5 S 17.4 0.0 0.6
18:26 19.0 14.3 74 1021.2 14.5 SSW 17.4 0.0 0.6
18:27 19.0 14.3 74 1021.0 15.2 SW 17.4 0.0 0.6
18:28 19.0 14.3 74 1020.9 13.6 SW 17.4 0.0 0.6
18:29 19.0 14.3 74 1021.1 17.4 S 17.4 0.0 0.6
18:30 19.0 14.3 74 1021.1 17.4 S 17.4 0.0 0.6
18:31 19.0 14.3 74 1021.1 22.1 S 22.1 0.0 0.6
18:32 19.0 14.3 74 1021.0 11.4 SW 22.1 0.0 0.6
18:33 19.0 14.3 74 1021.1 12.1 S 22.1 0.0 0.6
18:34 19.0 14.3 74 1021.1 11.4 S 22.1 0.0 0.6
18:35 18.9 14.2 74 1021.3 15.2 S 22.1 0.0 0.6
18:36 18.9 14.2 74 1021.2 14.5 SW 22.1 0.0 0.6
18:37 18.9 14.2 74 1021.3 14.5 SW 22.1 0.0 0.6
18:38 18.9 14.2 74 1021.2 10.7 SW 22.1 0.0 0.6
18:39 18.9 14.2 74 1021.2 16.8 S 22.1 0.0 0.6
18:40 18.9 14.4 75 1021.1 13.6 S 22.1 0.0 0.6
18:42 18.9 14.4 75 1021.1 16.8 S 16.8 0.0 0.6
18:43 18.9 14.4 75 1021.1 13.0 S 16.8 0.0 0.6
18:44 18.9 14.4 75 1021.1 13.0 S 16.8 0.0 0.6
18:45 18.8 14.3 75 1021.2 18.3 S 18.3 0.0 0.6
18:46 18.8 14.3 75 1021.2 15.2 SE 18.3 0.0 0.6
18:47 18.8 14.3 75 1021.2 16.8 SE 18.3 0.0 0.6
18:48 18.8 14.3 75 1021.0 13.6 S 18.3 0.0 0.6
18:49 18.8 14.3 75 1021.1 13.6 S 18.3 0.0 0.6
18:50 18.8 14.3 75 1021.2 14.5 S 18.3 0.0 0.6
18:51 18.8 14.3 75 1021.2 15.9 SW 18.3 0.0 0.6
18:52 18.8 14.3 75 1021.0 15.2 S 18.3 0.0 0.6
18:53 18.8 14.3 75 1021.3 18.3 S 19.7 0.0 0.6
18:54 18.8 14.3 75 1021.2 16.8 S 19.7 0.0 0.6
18:55 18.8 14.3 75 1021.1 13.0 S 19.7 0.0 0.6
18:56 18.7 14.2 75 1021.3 16.8 S 19.7 0.0 0.6
18:58 18.7 14.2 75 1021.2 13.0 S 19.7 0.0 0.6
18:59 18.7 14.2 75 1021.1 14.5 S 19.7 0.0 0.6
19:00 18.7 14.2 75 1021.2 14.5 SE 19.7 0.0 0.6
19:01 18.7 14.2 75 1021.2 14.5 SE 19.7 0.0 0.6
19:02 18.6 14.1 75 1021.3 9.8 S 19.7 0.0 0.6
19:03 18.6 14.1 75 1021.1 12.1 SW 18.3 0.0 0.6
19:04 18.6 14.1 75 1021.2 14.5 SW 16.8 0.0 0.6
19:05 18.6 14.1 75 1021.4 15.2 S 16.8 0.0 0.6
19:06 18.6 14.1 75 1021.2 11.4 S 16.8 0.0 0.6
19:07 18.6 14.1 75 1021.3 12.1 S 15.2 0.0 0.6
19:08 18.6 14.1 75 1021.4 9.2 SW 15.2 0.0 0.6
19:09 18.6 14.1 75 1021.3 15.9 SW 15.9 0.0 0.6
19:10 18.6 14.1 75 1021.5 19.7 S 19.7 0.0 0.6
19:11 18.6 14.3 76 1021.5 15.2 S 19.7 0.0 0.6
19:12 18.5 14.0 75 1021.4 14.5 S 19.7 0.0 0.6
19:13 18.6 14.3 76 1021.6 15.2 SW 19.7 0.0 0.6
19:14 18.5 14.2 76 1021.3 13.0 S 19.7 0.0 0.6
19:15 18.5 14.2 76 1021.3 13.6 SW 19.7 0.0 0.6
19:16 18.5 14.2 76 1021.3 19.0 SE 19.7 0.0 0.6
19:17 18.5 14.2 76 1021.3 12.1 S 19.7 0.0 0.6
19:19 18.4 14.1 76 1021.2 11.4 SW 19.7 0.0 0.6
19:20 18.5 14.2 76 1021.2 18.3 S 19.7 0.0 0.6
19:21 18.5 14.2 76 1021.1 13.6 SW 19.0 0.0 0.6
19:22 18.5 14.2 76 1021.0 12.1 NW 19.0 0.0 0.6
19:23 18.5 14.2 76 1021.2 14.5 NW 19.0 0.0 0.6
19:24 18.5 14.2 76 1021.2 15.2 NNW 19.0 0.0 0.6
19:25 18.5 14.2 76 1021.3 15.9 SW 19.0 0.0 0.6
19:26 18.5 14.2 76 1021.1 13.0 S 19.0 0.0 0.6
19:27 18.4 14.1 76 1021.2 18.3 SE 18.3 0.0 0.6
19:28 18.4 14.1 76 1021.1 18.3 SE 18.3 0.0 0.6
19:29 18.4 14.1 76 1021.3 14.5 SW 18.3 0.0 0.6
19:30 18.4 14.3 77 1021.3 15.9 S 18.3 0.0 0.6
19:31 18.4 14.3 77 1021.3 16.8 S 18.3 0.0 0.6
19:32 18.3 14.2 77 1021.3 18.3 S 18.3 0.0 0.6
19:33 18.3 14.2 77 1021.1 15.9 SW 18.3 0.0 0.6
19:34 18.3 14.2 77 1021.3 11.4 SE 18.3 0.0 0.6
19:35 18.3 14.2 77 1021.3 13.6 S 18.3 0.0 0.6
19:36 18.3 14.2 77 1021.4 15.2 S 18.3 0.0 0.6
19:38 18.3 14.2 77 1021.4 13.6 S 18.3 0.0 0.6
19:39 18.3 14.2 77 1021.4 18.3 SE 18.3 0.0 0.6
19:40 18.3 14.2 77 1021.3 14.5 SW 18.3 0.0 0.6
19:41 18.3 14.2 77 1021.3 14.5 SW 18.3 0.0 0.6
19:42 18.3 14.2 77 1021.2 13.6 SE 18.3 0.0 0.6
19:43 18.3 14.2 77 1021.3 14.5 SE 18.3 0.0 0.6
19:44 18.3 14.2 77 1021.4 15.2 S 18.3 0.0 0.6
19:45 18.2 14.3 78 1021.5 15.2 S 18.3 0.0 0.6
19:46 18.2 14.3 78 1021.4 13.6 S 18.3 0.0 0.6
19:47 18.2 14.3 78 1021.2 13.0 SW 18.3 0.0 0.6
19:48 18.2 14.3 78 1021.4 15.9 S 18.3 0.0 0.6
19:49 18.2 14.3 78 1021.4 13.0 S 18.3 0.0 0.6
19:50 18.2 14.3 78 1021.5 15.2 S 15.9 0.0 0.6
19:51 18.2 14.3 78 1021.5 15.2 SE 15.9 0.0 0.6
19:52 18.2 14.3 78 1021.5 13.6 SW 15.9 0.0 0.6
19:53 18.2 14.3 78 1021.5 15.9 S 15.9 0.0 0.6
19:54 18.1 14.2 78 1021.4 10.7 S 15.9 0.0 0.6
19:55 18.1 14.2 78 1021.4 19.0 SE 19.0 0.0 0.6
19:56 18.1 14.2 78 1021.4 11.4 S 19.0 0.0 0.6
19:57 18.1 14.2 78 1021.2 10.7 SW 19.0 0.0 0.6
19:59 18.1 14.4 79 1021.3 13.6 SW 19.0 0.0 0.6
20:00 18.1 14.4 79 1021.3 15.9 SW 19.0 0.0 0.6
20:01 18.1 14.4 79 1021.3 13.6 S 19.0 0.0 0.6
20:02 18.1 14.4 79 1021.6 13.6 S 19.0 0.0 0.6
20:03 18.1 14.4 79 1021.3 13.6 S 19.0 0.0 0.6
20:04 18.1 14.4 79 1021.5 13.6 S 19.0 0.0 0.6
20:05 18.1 14.4 79 1021.3 14.5 SW 19.0 0.0 0.6
20:06 18.0 14.3 79 1021.3 11.4 SSW 16.8 0.0 0.6
20:07 18.1 14.4 79 1021.3 11.4 SE 15.9 0.0 0.6
20:08 18.1 14.4 79 1021.4 14.5 S 15.9 0.0 0.6
20:09 18.0 14.3 79 1021.5 12.1 SE 15.9 0.0 0.6
20:10 18.0 14.3 79 1021.4 13.6 S 15.9 0.0 0.6
20:11 18.0 14.3 79 1021.4 11.4 NW 14.5 0.0 0.6
20:12 18.0 14.3 79 1021.3 17.4 S 18.3 0.0 0.6
20:13 18.0 14.3 79 1021.4 14.5 S 18.3 0.0 0.6
20:14 18.0 14.5 80 1021.5 13.6 SE 18.3 0.0 0.6
20:15 18.0 14.5 80 1021.5 13.6 SW 18.3 0.0 0.6
20:16 18.0 14.5 80 1021.4 14.5 SW 18.3 0.0 0.6
20:18 17.9 14.4 80 1021.5 13.6 SW 18.3 0.0 0.6
20:19 18.0 14.5 80 1021.5 15.9 SW 18.3 0.0 0.6
20:20 17.9 14.4 80 1021.4 19.7 WNW 19.7 0.0 0.6
20:21 17.9 14.4 80 1021.4 19.7 WNW 19.7 0.0 0.6
20:22 17.9 14.4 80 1021.6 13.0 SW 19.7 0.0 0.6
20:23 17.9 14.4 80 1021.5 13.6 SW 19.7 0.0 0.6
20:24 17.9 14.4 80 1021.5 15.2 S 19.7 0.0 0.6
20:25 17.9 14.4 80 1021.5 14.5 SW 19.7 0.0 0.6
20:26 17.9 14.4 80 1021.5 12.1 S 19.7 0.0 0.6
20:27 17.9 14.4 80 1021.5 15.2 SW 19.7 0.0 0.6
20:28 17.9 14.4 80 1021.5 9.2 S 19.7 0.0 0.6
20:29 17.9 14.4 80 1021.6 22.8 SW 22.8 0.0 0.6
20:30 17.9 14.4 80 1021.5 10.7 SW 22.8 0.0 0.6
20:31 17.7 14.2 80 1021.5 16.8 S 22.8 0.0 0.6
20:32 17.9 14.4 80 1021.5 9.8 S 22.8 0.0 0.6
20:33 17.9 14.6 81 1021.4 12.1 S 22.8 0.0 0.6
20:34 17.8 14.3 80 1021.6 11.4 SE 22.8 0.0 0.6
20:35 17.9 14.4 80 1021.5 10.7 S 22.8 0.0 0.6
20:37 17.8 14.5 81 1021.6 19.0 S 22.8 0.0 0.6
20:38 17.8 14.5 81 1021.4 13.6 W 22.8 0.0 0.6
20:39 17.8 14.5 81 1021.7 17.4 S 19.0 0.0 0.6
20:40 17.8 14.5 81 1021.6 13.0 SE 19.0 0.0 0.6
20:41 17.8 14.5 81 1021.6 12.1 S 19.0 0.0 0.6
20:42 17.8 14.5 81 1021.5 12.1 SW 19.0 0.0 0.6
20:43 17.8 14.5 81 1021.6 17.4 WSW 19.0 0.0 0.6
20:44 17.8 14.5 81 1021.5 13.6 S 19.0 0.0 0.6
20:45 17.8 14.5 81 1021.5 15.9 SE 19.0 0.0 0.6
20:46 17.8 14.5 81 1021.5 13.6 SW 19.0 0.0 0.6
20:47 17.8 14.5 81 1021.5 10.7 S 19.0 0.0 0.6
20:48 17.8 14.5 81 1021.6 12.1 SSW 17.4 0.0 0.6
20:49 17.8 14.5 81 1021.5 14.5 S 17.4 0.0 0.6
20:50 17.8 14.5 81 1021.5 12.1 SW 17.4 0.0 0.6
20:51 17.8 14.5 81 1021.7 14.5 S 17.4 0.0 0.6
20:52 17.8 14.5 81 1021.6 11.4 S 17.4 0.0 0.6
20:53 17.8 14.5 81 1021.7 11.4 SW 15.9 0.0 0.6
20:55 17.8 14.5 81 1021.5 11.4 S 14.5 0.0 0.6
20:56 17.8 14.5 81 1021.7 13.6 SW 14.5 0.0 0.6
20:57 17.8 14.5 81 1021.5 12.1 SE 14.5 0.0 0.6
20:58 17.7 14.4 81 1021.7 13.0 WSW 14.5 0.0 0.6
20:59 17.7 14.4 81 1021.6 11.4 WSW 14.5 0.0 0.6
21:00 17.7 14.4 81 1021.6 9.8 S 14.5 0.0 0.6
21:01 17.7 14.4 81 1021.8 9.8 S 14.5 0.0 0.6
21:02 17.7 14.4 81 1021.7 14.5 SW 14.5 0.0 0.6
21:03 17.7 14.4 81 1021.7 13.0 SW 14.5 0.0 0.6
21:04 17.7 14.6 82 1021.8 14.5 S 14.5 0.0 0.6
21:05 17.7 14.4 81 1021.5 15.2 SE 15.2 0.0 0.6
21:06 17.7 14.6 82 1021.6 15.2 SW 15.2 0.0 0.6
21:07 17.7 14.6 82 1021.7 16.8 WSW 16.8 0.0 0.6
21:08 17.7 14.6 82 1021.7 12.1 S 16.8 0.0 0.6
21:09 17.7 14.6 82 1021.8 16.8 SW 16.8 0.0 0.6
21:10 17.7 14.6 82 1021.7 15.2 S 16.8 0.0 0.6
21:12 17.7 14.6 82 1021.7 11.4 S 16.8 0.0 0.6
21:13 17.7 14.6 82 1021.7 11.4 SSW 16.8 0.0 0.6
21:14 17.7 14.6 82 1021.6 10.7 S 16.8 0.0 0.6
21:15 17.6 14.5 82 1021.6 10.7 S 16.8 0.0 0.6
21:16 17.6 14.5 82 1021.5 8.3 S 16.8 0.0 0.6
21:17 17.6 14.5 82 1021.6 9.8 S 16.8 0.0 0.6
21:18 17.6 14.5 82 1021.7 11.4 SE 16.8 0.0 0.6
21:19 17.6 14.5 82 1021.7 14.5 S 15.2 0.0 0.6
21:21 17.6 14.5 82 1021.6 14.5 S 15.2 0.0 0.6
21:22 17.6 14.5 82 1021.6 8.3 SE 15.2 0.0 0.6
21:23 17.5 14.6 83 1021.7 11.4 S 14.5 0.0 0.6
21:24 17.5 14.6 83 1021.7 11.4 S 14.5 0.0 0.6
21:25 17.5 14.6 83 1021.7 10.7 S 14.5 0.0 0.6
21:26 17.5 14.6 83 1021.6 9.8 S 14.5 0.0 0.6
21:27 17.5 14.6 83 1021.6 10.7 S 14.5 0.0 0.6
21:28 17.5 14.6 83 1021.6 11.4 SE 14.5 0.0 0.6
21:29 17.5 14.6 83 1021.6 13.0 SE 14.5 0.0 0.6
21:30 17.5 14.6 83 1021.7 13.0 S 14.5 0.0 0.6
21:31 17.5 14.6 83 1021.7 8.3 S 14.5 0.0 0.6
21:32 17.5 14.6 83 1021.9 9.8 SW 13.0 0.0 0.6
21:33 17.5 14.6 83 1021.8 7.6 SW 13.0 0.0 0.6
21:34 17.5 14.6 83 1021.8 13.0 SW 13.0 0.0 0.6
21:35 17.5 14.6 83 1021.8 11.4 S 13.0 0.0 0.6
21:36 17.5 14.6 83 1021.8 9.8 N 13.0 0.0 0.6
21:37 17.4 14.5 83 1021.8 10.7 SW 13.0 0.0 0.6
21:38 17.4 14.5 83 1021.8 13.6 S 13.6 0.0 0.6
21:40 17.4 14.5 83 1022.0 10.7 SW 13.6 0.0 0.6
21:41 17.4 14.5 83 1021.8 10.7 SW 13.6 0.0 0.6
21:42 17.4 14.5 83 1021.8 10.7 SW 13.6 0.0 0.6
21:43 17.4 14.5 83 1021.9 11.4 S 13.6 0.0 0.6
21:44 17.4 14.7 84 1021.9 12.1 SE 13.6 0.0 0.6
21:45 17.4 14.7 84 1021.9 13.6 S 13.6 0.0 0.6
21:46 17.4 14.7 84 1021.9 12.1 SW 13.6 0.0 0.6
21:47 17.4 14.7 84 1021.8 10.7 S 15.9 0.0 0.6
21:48 17.4 14.7 84 1021.9 9.8 S 15.9 0.0 0.6
21:49 17.4 14.7 84 1021.8 13.6 S 15.9 0.0 0.6
21:50 17.4 14.7 84 1022.0 13.0 SE 15.9 0.0 0.6
21:51 17.4 14.7 84 1021.9 11.4 WSW 15.9 0.0 0.6
21:52 17.4 14.7 84 1022.0 11.4 SE 15.9 0.0 0.6
21:53 17.4 14.7 84 1022.0 12.1 S 15.9 0.0 0.6
21:54 17.4 14.7 84 1022.0 12.1 S 15.9 0.0 0.6
21:55 17.4 14.7 84 1022.0 13.6 SE 15.9 0.0 0.6
21:56 17.4 14.7 84 1021.9 13.0 S 15.9 0.0 0.6
21:57 17.4 14.7 84 1022.0 11.4 SSE 13.6 0.0 0.6
21:59 17.4 14.7 84 1021.9 11.4 S 13.6 0.0 0.6
22:00 17.4 14.7 84 1022.0 12.1 SE 13.6 0.0 0.6
22:01 17.4 14.7 84 1022.0 12.1 SE 13.6 0.0 0.6
22:02 17.4 14.7 84 1022.1 11.4 SE 13.6 0.0 0.6
22:03 17.5 15.0 85 1022.2 15.2 SW 15.2 0.0 0.6
22:04 17.5 15.0 85 1022.2 11.4 SE 15.2 0.0 0.6
22:05 17.5 15.0 85 1022.2 14.5 S 15.2 0.0 0.6
22:06 17.5 15.0 85 1022.0 9.2 SW 15.2 0.0 0.6
22:07 17.5 15.0 85 1022.0 13.6 SW 15.2 0.0 0.6
22:08 17.5 15.0 85 1022.1 13.6 SW 15.2 0.0 0.6
22:09 17.5 15.0 85 1022.1 13.0 SE 15.2 0.0 0.6
22:10 17.5 15.0 85 1021.9 15.2 SW 15.2 0.0 0.6
22:11 17.5 15.0 85 1021.9 15.9 S 15.9 0.0 0.6
22:12 17.5 15.0 85 1022.0 9.2 S 15.9 0.0 0.6
22:13 17.5 15.0 85 1022.0 10.7 SW 15.9 0.0 0.6
22:14 17.5 15.0 85 1022.1 12.1 S 15.9 0.0 0.6
22:15 17.5 15.0 85 1021.9 13.0 SE 15.9 0.0 0.6
22:16 17.5 15.0 85 1022.0 15.9 S 15.9 0.0 0.6
22:17 17.5 15.0 85 1022.0 11.4 SW 15.9 0.0 0.6
22:19 17.5 15.0 85 1021.9 12.1 S 15.9 0.0 0.6
22:20 17.5 15.0 85 1022.0 9.2 S 15.9 0.0 0.6
22:21 17.5 15.0 85 1021.9 13.6 S 15.9 0.0 0.6
22:22 17.5 15.0 85 1021.9 14.5 S 15.9 0.0 0.6
22:23 17.5 15.0 85 1021.8 12.1 S 15.9 0.0 0.6
22:24 17.5 15.1 86 1021.8 14.5 S 15.9 0.0 0.6
22:25 17.5 15.1 86 1021.9 11.4 S 15.9 0.0 0.6
22:26 17.5 15.1 86 1021.9 15.2 S 15.9 0.0 0.6
22:27 17.5 15.0 85 1021.7 13.0 SE 15.9 0.0 0.6
22:28 17.5 15.1 86 1021.8 18.3 S 18.3 0.0 0.6
22:29 17.5 15.1 86 1021.8 12.1 SW 18.3 0.0 0.6
22:30 17.5 15.1 86 1021.7 14.5 S 18.3 0.0 0.6
22:31 17.5 15.1 86 1021.7 13.0 SW 18.3 0.0 0.6
22:32 17.5 15.1 86 1021.7 13.0 S 18.3 0.0 0.6
22:33 17.5 15.1 86 1021.8 9.8 SSW 18.3 0.0 0.6
22:34 17.5 15.1 86 1021.7 11.4 SE 18.3 0.0 0.6
22:35 17.5 15.1 86 1021.9 13.0 S 18.3 0.0 0.6
22:36 17.5 15.1 86 1022.0 13.0 S 18.3 0.0 0.6
22:37 17.5 15.1 86 1022.0 14.5 S 18.3 0.0 0.6
22:39 17.5 15.1 86 1022.0 15.2 WSW 15.9 0.0 0.6
22:40 17.5 15.1 86 1021.9 12.1 S 15.9 0.0 0.6
22:41 17.5 15.1 86 1022.0 11.4 SW 15.9 0.0 0.6
22:42 17.5 15.1 86 1022.1 10.7 SE 15.9 0.0 0.6
22:43 17.5 15.1 86 1022.0 14.5 SW 15.2 0.0 0.6
22:44 17.5 15.1 86 1022.0 14.5 S 15.2 0.0 0.6
22:45 17.5 15.1 86 1021.9 14.5 WNW 15.2 0.0 0.6
22:46 17.5 15.1 86 1021.8 12.1 S 15.2 0.0 0.6
22:47 17.5 15.1 86 1021.8 11.4 S 15.2 0.0 0.6
22:48 17.5 15.1 86 1021.9 10.7 S 15.2 0.0 0.6
22:49 17.5 15.1 86 1021.9 9.2 S 15.2 0.0 0.6
22:50 17.5 15.1 86 1021.8 13.6 S 14.5 0.0 0.6
22:51 17.5 15.1 86 1021.8 14.5 SW 14.5 0.0 0.6
22:52 17.5 15.1 86 1021.8 12.1 S 15.9 0.0 0.6
22:53 17.5 15.1 86 1021.9 11.4 SE 15.9 0.0 0.6
22:54 17.5 15.1 86 1021.8 14.5 S 15.9 0.0 0.6
22:55 17.5 15.1 86 1021.8 11.4 SW 15.9 0.0 0.6
22:56 17.5 15.1 86 1021.9 15.2 S 15.9 0.0 0.6
22:58 17.5 15.3 87 1021.9 13.0 S 15.9 0.0 0.6
22:59 17.5 15.3 87 1021.9 14.5 S 15.9 0.0 0.6
23:00 17.5 15.3 87 1021.8 15.9 S 15.9 0.0 0.6
23:01 17.5 15.3 87 1021.7 15.9 S 15.9 0.0 0.6
23:02 17.5 15.3 87 1021.9 15.9 S 15.9 0.0 0.6
23:03 17.5 15.3 87 1022.0 15.9 S 15.9 0.0 0.6
23:04 17.5 15.3 87 1021.9 15.9 S 15.9 0.0 0.6
23:05 17.5 15.3 87 1021.9 15.9 S 15.9 0.0 0.6
23:06 17.5 15.3 87 1021.9 13.6 S 15.9 0.0 0.6
23:07 17.5 15.3 87 1021.8 13.6 SW 15.9 0.0 0.6
23:08 17.5 15.3 87 1021.9 12.1 SE 15.9 0.0 0.6
23:09 17.5 15.3 87 1021.8 11.4 S 15.9 0.0 0.6
23:10 17.5 15.3 87 1021.9 9.8 SW 15.9 0.0 0.6
23:11 17.5 15.3 87 1021.9 13.6 S 15.9 0.0 0.6
23:13 17.5 15.3 87 1022.0 12.1 S 15.9 0.0 0.6
23:14 17.5 15.3 87 1021.9 11.4 S 15.9 0.0 0.6
23:15 17.5 15.3 87 1021.8 14.5 S 14.5 0.0 0.6
23:16 17.5 15.3 87 1021.7 13.6 SW 14.5 0.0 0.6
23:17 17.5 15.3 87 1022.1 13.0 SW 14.5 0.0 0.6
23:18 17.5 15.3 87 1022.0 13.0 SW 14.5 0.0 0.6
23:19 17.5 15.3 87 1021.9 13.0 SW 14.5 0.0 0.6
23:20 17.5 15.3 87 1021.9 13.0 SW 14.5 0.0 0.6
23:21 17.5 15.3 87 1022.1 13.0 SW 14.5 0.0 0.6
23:22 17.5 15.3 87 1021.9 13.0 SW 14.5 0.0 0.6
23:24 17.5 15.3 87 1021.9 13.0 SW 14.5 0.0 0.6
23:25 17.5 15.3 87 1021.9 13.0 SW 14.5 0.0 0.6
23:26 17.5 15.3 87 1021.9 13.0 SW 14.5 0.0 0.6
23:27 17.5 15.3 87 1022.0 13.0 SW 14.5 0.0 0.6
23:28 17.5 15.3 87 1021.9 13.0 SW 14.5 0.0 0.6
23:29 17.5 15.3 87 1021.9 13.0 SW 14.5 0.0 0.6
23:30 17.5 15.3 87 1021.9 13.0 SW 14.5 0.0 0.6
23:31 17.5 15.3 87 1021.9 13.0 SW 14.5 0.0 0.6
23:32 17.5 15.3 87 1022.0 13.0 SW 14.5 0.0 0.6
23:33 17.5 15.3 87 1022.1 13.0 SW 14.5 0.0 0.6
23:34 17.5 15.3 87 1022.0 13.0 SW 14.5 0.0 0.6
23:35 17.5 15.3 87 1022.1 13.0 SW 14.5 0.0 0.6
23:36 17.5 15.3 87 1022.0 13.0 SW 14.5 0.0 0.6
23:37 17.5 15.3 87 1022.0 13.0 SW 14.5 0.0 0.6
23:38 17.5 15.3 87 1022.1 13.0 SW 14.5 0.0 0.6
23:39 17.5 15.3 87 1022.0 13.0 SW 14.5 0.0 0.6
23:40 17.5 15.3 87 1022.0 13.0 SW 14.5 0.0 0.6
23:41 17.5 15.3 87 1022.0 13.0 SW 14.5 0.0 0.6
23:43 17.5 15.3 87 1022.0 13.0 SW 14.5 0.0 0.6
23:44 17.5 15.3 87 1022.0 13.0 SW 14.5 0.0 0.6
23:45 17.5 15.3 87 1022.1 13.0 SW 14.5 0.0 0.6
23:46 17.5 15.3 87 1022.0 13.0 SW 14.5 0.0 0.6
23:47 17.5 15.3 87 1022.0 13.0 SW 14.5 0.0 0.6
23:48 17.5 15.3 87 1022.0 13.0 SW 14.5 0.0 0.6
23:49 17.5 15.3 87 1022.0 13.0 SW 14.5 0.0 0.6
23:50 17.5 15.3 87 1022.0 13.0 SW 14.5 0.0 0.6
23:51 17.5 15.3 87 1022.0 13.0 SW 14.5 0.0 0.6
23:52 17.5 15.3 87 1022.0 13.0 SW 14.5 0.0 0.6
23:53 17.5 15.3 87 1022.0 13.0 SW 14.5 0.0 0.6
23:54 17.5 15.3 87 1022.2 13.0 SW 14.5 0.0 0.6
23:55 17.5 15.3 87 1022.0 13.0 SW 14.5 0.0 0.6
23:56 17.5 15.3 87 1022.1 13.0 SW 14.5 0.0 0.6
23:57 17.5 15.3 87 1022.2 13.0 SW 14.5 0.0 0.6
23:58 17.5 15.3 87 1022.1 13.0 SW 14.5 0.0 0.6
23:59 17.5 15.3 87 1022.1 13.0 SW 14.5 0.0 0.6

 

 

UK - WEATHER STATION TOPSITES - UK World Weather Websites

Copyright © Carnkie Weather 2009 - 2019.